GFSGBSN_prec_precacc_228.txt.gz
Total_Precipitation_Accumulation
1.29 1.29 1.21 1.03 0.78 0.51 0.39 0.30 0.25 0.19 0.16 0.12 0.10 0.08 0.07 0.07 0.08 0.06 0.05 0.03 0.04 0.04 0.03 0.04 0.04 0.05 0.04 0.02 0.00 0.00 0.00 0.00 0.00 0.00 0.00 0.00 0.00 0.00 0.00 0.00 0.00 0.00 0.00 0.00 0.01 0.01 0.01
1.05 1.03 1.30 1.55 1.70 1.62 1.42 1.16 0.91 0.74 0.62 0.48 0.37 0.27 0.21 0.15 0.11 0.09 0.09 0.06 0.05 0.05 0.05 0.06 0.08 0.10 0.07 0.03 0.00 0.00 0.00 0.00 0.00 0.00 0.00 0.00 0.00 0.00 0.00 0.00 0.00 0.00 0.00 0.00 0.02 0.00 0.00
1.36 1.30 1.11 1.00 1.16 1.38 1.54 1.56 1.49 1.32 1.17 1.05 0.98 0.87 0.69 0.55 0.37 0.23 0.16 0.10 0.08 0.12 0.14 0.15 0.16 0.12 0.09 0.01 0.00 0.00 0.00 0.00 0.00 0.00 0.00 0.00 0.00 0.00 0.00 0.00 0.00 0.00 0.00 0.00 0.00 0.01 0.01
1.44 1.46 1.51 1.46 1.24 1.12 1.15 1.30 1.32 1.32 1.35 1.26 1.25 1.12 0.95 0.75 0.63 0.48 0.30 0.20 0.17 0.13 0.17 0.30 0.36 0.22 0.11 0.00 0.00 0.00 0.00 0.00 0.00 0.00 0.00 0.00 0.00 0.00 0.00 0.00 0.00 0.00 0.00 0.00 0.00 0.01 0.02
1.15 1.18 1.30 1.45 1.50 1.44 1.41 1.40 1.46 1.41 1.29 1.29 1.33 1.37 1.20 1.02 0.76 0.53 0.43 0.33 0.24 0.26 0.33 0.33 0.42 0.32 0.08 0.00 0.00 0.00 0.00 0.02 0.00 0.00 0.00 0.00 0.00 0.00 0.00 0.00 0.00 0.00 0.00 0.00 0.00 0.00 0.01
1.30 1.16 1.07 1.06 1.09 1.13 1.15 1.21 1.33 1.41 1.45 1.33 1.36 1.41 1.43 1.35 1.21 1.01 0.79 0.60 0.48 0.52 0.60 0.65 0.53 0.26 0.02 0.00 0.00 0.00 0.00 0.02 0.01 0.00 0.00 0.00 0.00 0.00 0.00 0.00 0.00 0.00 0.00 0.00 0.02 0.07 0.00
1.95 1.79 1.56 1.41 1.23 1.04 0.95 1.00 1.08 1.12 1.24 1.28 1.20 1.22 1.25 1.31 1.37 1.45 1.28 1.22 1.09 0.94 0.72 0.35 0.20 0.06 0.00 0.00 0.00 0.00 0.00 0.00 0.00 0.00 0.02 0.00 0.00 0.00 0.00 0.00 0.00 0.00 0.00 0.00 0.00 0.00 0.00
1.96 1.88 1.81 1.75 1.64 1.56 1.44 1.30 1.10 1.01 1.00 1.16 1.40 1.40 1.21 1.19 1.36 1.58 1.46 1.29 0.83 0.62 0.51 0.09 0.01 0.00 0.00 0.00 0.00 0.00 0.00 0.03 0.02 0.03 0.03 0.04 0.01 0.00 0.00 0.00 0.00 0.00 0.00 0.00 0.00 0.00 0.00
1.83 1.88 1.78 1.69 1.66 1.57 1.52 1.50 1.38 1.09 0.88 0.96 1.19 1.56 1.73 1.61 1.75 1.94 1.81 1.27 0.63 0.54 0.74 0.22 0.05 0.01 0.00 0.00 0.00 0.00 0.00 0.02 0.04 0.03 0.04 0.04 0.02 0.00 0.00 0.00 0.00 0.00 0.00 0.00 0.00 0.00 0.00
1.75 1.68 1.67 1.71 1.79 1.78 1.72 1.63 1.35 1.11 1.07 1.15 1.24 1.60 1.95 2.50 3.20 2.16 1.94 0.97 0.83 1.12 1.42 0.52 0.06 0.03 0.01 0.00 0.01 0.00 0.00 0.01 0.05 0.03 0.10 0.17 0.00 0.01 0.01 0.00 0.01 0.01 0.00 0.01 0.00 0.04 0.01
1.76 1.78 1.72 1.65 1.65 1.64 1.65 1.70 1.69 1.50 1.28 1.24 1.35 1.71 2.12 2.58 2.22 2.15 1.41 0.69 1.52 2.25 3.52 0.76 0.03 0.00 0.00 0.01 0.01 0.00 0.00 0.00 0.02 0.06 0.28 0.16 0.01 0.01 0.00 0.00 0.01 0.01 0.00 0.02 0.03 0.06 0.12
1.68 1.70 1.80 1.84 1.65 1.51 1.51 1.57 1.56 1.53 1.54 1.50 1.49 1.69 2.36 2.57 2.31 1.26 0.71 1.39 3.16 5.40 4.75 0.67 0.02 0.01 0.02 0.01 0.00 0.00 0.00 0.00 0.02 0.18 0.20 0.03 0.01 0.05 0.02 0.00 0.00 0.00 0.04 0.10 0.13 0.17 0.32
2.22 1.79 1.67 1.72 1.75 1.83 1.63 1.47 1.40 1.54 1.66 1.72 1.83 1.95 2.28 1.93 2.31 1.48 1.74 3.40 6.07 6.42 2.48 0.40 0.04 0.02 0.01 0.01 0.00 0.00 0.02 0.02 0.07 0.23 0.24 0.07 0.05 0.04 0.01 0.03 0.01 0.03 0.19 0.52 0.50 0.23 0.17
2.19 2.15 2.00 1.80 1.69 1.70 1.73 1.68 1.53 1.49 1.65 1.91 2.23 2.54 2.50 2.10 1.71 2.18 3.81 5.91 7.11 3.62 1.18 0.18 0.05 0.07 0.09 0.04 0.02 0.02 0.10 0.09 0.07 0.09 0.24 0.27 0.16 0.04 0.06 0.05 0.08 0.07 0.29 0.51 0.59 0.21 0.09
2.19 2.14 2.02 1.81 1.57 1.52 1.59 1.75 1.78 1.90 2.00 2.21 2.94 3.31 3.43 2.91 2.72 3.49 5.87 8.94 5.59 1.77 0.34 0.08 0.10 0.23 0.30 0.26 0.16 0.16 0.28 0.32 0.24 0.30 0.79 0.74 0.29 0.03 0.05 0.04 0.19 0.35 0.43 0.18 0.90 0.65 0.69
2.70 2.26 2.11 1.96 1.75 1.60 1.59 1.56 1.90 2.14 2.33 2.61 2.79 3.34 3.28 2.85 3.54 5.13 7.57 6.98 3.16 0.81 0.14 0.11 0.35 0.26 0.27 0.25 0.41 0.46 0.49 0.61 0.43 0.42 0.88 1.29 1.41 0.18 0.09 0.21 0.21 0.37 0.35 1.04 2.20 2.26 1.23
3.36 2.67 2.29 2.21 2.09 1.62 1.53 1.52 1.75 2.13 2.24 2.93 3.46 4.42 3.13 2.72 5.16 8.03 8.68 4.94 2.16 0.64 0.33 0.45 0.35 0.48 0.31 0.30 0.55 0.68 0.75 0.62 0.82 0.36 0.60 1.03 1.70 0.86 0.39 0.43 0.34 0.55 1.01 1.82 2.25 1.82 1.51
3.26 3.38 2.91 2.52 2.63 2.21 1.66 1.76 1.98 2.24 2.82 4.00 4.63 4.81 3.14 3.44 6.38 7.30 5.55 2.87 1.37 0.56 0.58 0.88 0.66 0.38 0.44 0.42 0.50 0.66 0.82 0.87 0.82 0.59 0.56 0.89 1.71 1.23 0.44 0.20 0.23 0.73 1.46 2.56 4.04 3.23 2.51
3.17 3.21 3.49 3.14 3.05 3.23 2.49 2.10 2.31 2.61 3.12 4.06 5.57 4.17 4.11 4.69 5.59 4.24 2.84 2.15 1.36 0.66 0.62 1.29 1.07 0.66 0.56 0.48 1.05 0.60 0.61 0.76 0.95 0.90 0.79 0.94 1.69 1.69 1.01 0.78 0.67 1.30 1.55 1.95 2.86 3.47 3.32
2.73 2.97 2.82 3.35 3.26 3.78 3.47 2.85 2.58 2.79 3.77 4.68 6.45 5.87 6.20 6.19 3.96 2.46 1.90 1.63 1.32 0.72 0.49 0.75 0.97 0.55 0.77 1.09 1.05 1.04 0.59 0.75 0.96 0.80 0.62 1.41 1.09 1.39 1.09 0.82 1.06 1.17 0.99 1.47 2.44 2.94 2.14
2.03 2.47 2.87 2.91 3.52 3.90 4.20 3.89 3.61 3.71 4.44 7.35 8.40 4.59 2.93 3.79 2.71 2.02 1.80 1.79 1.04 1.01 1.02 0.75 0.93 0.64 0.73 1.30 1.19 0.84 0.62 0.99 1.19 0.93 0.81 1.60 1.48 1.25 0.92 0.40 0.48 0.78 0.79 0.81 1.48 1.29 1.64
1.69 1.77 2.34 3.01 3.51 3.43 3.91 4.26 4.09 4.29 5.87 9.66 8.34 2.92 1.54 1.08 0.99 1.67 1.65 1.65 0.90 0.82 1.42 1.20 1.17 0.75 0.75 0.89 0.81 0.93 0.96 0.88 1.15 0.85 1.17 1.85 2.03 1.48 1.52 0.54 0.73 0.97 0.90 0.59 0.82 0.69 0.68
1.53 1.49 1.91 2.51 2.86 2.96 3.55 4.10 4.09 4.25 6.89 11.71 6.64 1.70 2.05 1.60 0.88 1.36 1.57 1.22 0.99 1.24 1.12 0.67 0.87 0.93 0.95 0.95 0.78 0.58 0.69 0.82 0.78 0.86 1.22 1.95 2.67 2.36 2.16 0.69 0.99 1.70 0.88 0.62 0.53 0.30 0.26
1.68 1.61 1.65 2.09 2.25 2.71 3.22 3.56 4.11 4.58 5.53 6.41 3.87 1.83 2.66 2.56 1.18 0.98 0.58 0.59 0.74 0.87 1.85 0.96 0.83 0.93 0.83 0.65 0.85 1.05 1.13 1.13 1.12 1.14 1.30 1.93 1.97 2.63 2.45 1.25 2.31 1.62 0.46 0.44 0.52 0.40 0.19
1.92 1.79 1.83 2.05 2.25 2.46 3.04 3.12 3.65 4.55 4.92 4.58 3.54 2.40 3.05 2.57 1.11 0.85 0.58 0.62 0.59 0.87 1.16 1.37 1.09 0.95 0.75 0.85 1.78 2.44 2.38 2.14 1.54 1.27 1.47 1.66 1.66 2.50 2.35 1.70 1.35 0.43 0.31 0.40 0.87 0.79 0.41
1.95 1.87 1.88 1.97 2.14 2.31 2.66 2.84 2.83 3.82 4.79 4.82 4.22 3.01 3.48 3.64 1.43 0.63 0.64 0.43 0.70 1.11 1.28 1.10 1.23 1.29 1.40 1.82 2.61 2.75 1.98 1.58 1.18 1.02 0.75 1.06 1.64 2.50 2.48 1.97 1.20 0.27 0.12 0.27 0.61 1.49 1.01
1.68 1.72 1.55 1.68 1.96 2.04 2.37 2.65 2.53 2.98 3.98 5.06 4.94 2.93 4.59 4.69 1.27 0.71 1.04 0.82 0.58 0.79 1.18 0.97 1.18 1.49 1.54 2.73 3.39 2.46 1.50 0.69 0.82 0.75 0.95 1.42 2.37 2.77 2.14 1.97 0.64 0.11 0.09 0.22 1.41 1.58 1.11
1.63 1.77 1.52 1.56 1.65 1.72 2.02 2.26 2.35 2.55 3.48 4.32 5.23 2.61 4.26 4.97 1.94 0.90 0.87 0.75 0.57 0.72 1.32 1.19 1.88 1.81 2.23 2.31 2.06 1.99 1.75 1.27 0.98 0.65 0.58 1.05 1.96 2.12 2.03 2.38 1.06 0.33 0.47 1.01 1.36 1.24 1.18
1.59 1.79 1.57 1.53 1.48 1.60 1.73 1.92 2.22 2.42 3.17 3.90 4.81 2.98 3.46 5.46 3.46 1.00 1.02 0.68 0.45 0.52 0.94 1.32 1.53 1.44 1.71 2.12 1.71 1.58 1.45 1.29 1.17 1.25 0.64 0.83 1.08 1.55 1.67 1.38 0.74 0.39 0.51 0.98 1.01 1.07 1.06

GFSGBSN_prec_precacc_231.txt.gz
Total_Precipitation_Accumulation
1.29 1.29 1.21 1.03 0.78 0.51 0.39 0.30 0.25 0.19 0.16 0.12 0.10 0.08 0.07 0.07 0.08 0.06 0.05 0.03 0.04 0.04 0.04 0.04 0.04 0.05 0.04 0.02 0.00 0.00 0.00 0.00 0.00 0.00 0.00 0.00 0.00 0.00 0.00 0.00 0.00 0.00 0.00 0.00 0.01 0.01 0.01
1.05 1.03 1.30 1.55 1.70 1.62 1.42 1.16 0.91 0.74 0.62 0.48 0.37 0.27 0.21 0.15 0.11 0.09 0.09 0.06 0.05 0.05 0.05 0.07 0.08 0.10 0.07 0.03 0.00 0.00 0.00 0.00 0.00 0.00 0.00 0.00 0.00 0.00 0.00 0.00 0.00 0.00 0.00 0.00 0.02 0.00 0.00
1.36 1.30 1.11 1.00 1.16 1.38 1.54 1.56 1.49 1.32 1.17 1.05 0.98 0.87 0.69 0.55 0.37 0.23 0.16 0.10 0.08 0.12 0.14 0.16 0.17 0.12 0.09 0.01 0.00 0.00 0.00 0.00 0.00 0.00 0.00 0.00 0.00 0.00 0.00 0.00 0.00 0.00 0.00 0.00 0.00 0.01 0.01
1.44 1.46 1.51 1.46 1.24 1.12 1.15 1.30 1.32 1.32 1.36 1.26 1.25 1.12 0.95 0.75 0.63 0.48 0.30 0.20 0.17 0.13 0.17 0.30 0.37 0.23 0.11 0.00 0.00 0.00 0.00 0.00 0.00 0.00 0.00 0.00 0.00 0.00 0.00 0.00 0.00 0.00 0.00 0.00 0.00 0.01 0.02
1.15 1.18 1.30 1.45 1.50 1.44 1.41 1.40 1.46 1.41 1.29 1.29 1.33 1.37 1.20 1.02 0.76 0.53 0.43 0.33 0.24 0.26 0.33 0.35 0.44 0.33 0.08 0.00 0.00 0.00 0.00 0.02 0.00 0.00 0.00 0.00 0.00 0.00 0.00 0.00 0.00 0.00 0.00 0.00 0.00 0.00 0.01
1.31 1.16 1.07 1.06 1.09 1.13 1.15 1.21 1.33 1.41 1.45 1.33 1.36 1.41 1.43 1.35 1.21 1.01 0.79 0.60 0.48 0.52 0.60 0.66 0.54 0.26 0.02 0.00 0.00 0.00 0.00 0.02 0.01 0.00 0.00 0.00 0.00 0.00 0.00 0.00 0.00 0.00 0.00 0.00 0.02 0.07 0.00
1.95 1.80 1.56 1.41 1.24 1.04 0.95 1.00 1.08 1.12 1.24 1.28 1.20 1.22 1.25 1.31 1.37 1.45 1.28 1.22 1.09 0.94 0.72 0.35 0.20 0.06 0.00 0.00 0.00 0.00 0.00 0.00 0.00 0.00 0.02 0.00 0.00 0.00 0.00 0.00 0.00 0.00 0.00 0.00 0.00 0.00 0.00
1.96 1.88 1.81 1.75 1.64 1.56 1.45 1.30 1.10 1.01 1.00 1.16 1.40 1.40 1.21 1.19 1.36 1.58 1.46 1.30 0.89 0.67 0.57 0.09 0.01 0.00 0.00 0.00 0.00 0.00 0.00 0.03 0.02 0.03 0.03 0.04 0.01 0.00 0.00 0.00 0.00 0.00 0.00 0.00 0.00 0.00 0.00
1.84 1.88 1.78 1.69 1.66 1.57 1.53 1.50 1.39 1.09 0.88 0.96 1.19 1.56 1.73 1.61 1.75 1.94 1.81 1.29 0.65 0.59 0.91 0.23 0.05 0.01 0.00 0.00 0.00 0.00 0.00 0.02 0.04 0.03 0.04 0.04 0.02 0.00 0.00 0.00 0.00 0.00 0.00 0.00 0.00 0.00 0.00
1.75 1.68 1.67 1.72 1.80 1.79 1.72 1.63 1.35 1.11 1.07 1.15 1.24 1.60 1.95 2.50 3.20 2.16 1.95 0.99 0.84 1.33 1.49 0.55 0.08 0.03 0.02 0.01 0.01 0.00 0.00 0.01 0.05 0.03 0.10 0.17 0.00 0.01 0.01 0.00 0.01 0.01 0.00 0.01 0.00 0.04 0.01
1.76 1.78 1.72 1.65 1.65 1.65 1.65 1.70 1.69 1.50 1.28 1.24 1.35 1.71 2.12 2.58 2.22 2.15 1.42 0.70 1.52 2.25 3.54 0.79 0.04 0.00 0.05 0.02 0.01 0.00 0.00 0.00 0.02 0.07 0.29 0.16 0.01 0.01 0.00 0.00 0.01 0.01 0.00 0.02 0.03 0.06 0.12
1.68 1.71 1.81 1.84 1.66 1.51 1.51 1.57 1.56 1.53 1.54 1.50 1.49 1.69 2.36 2.57 2.31 1.26 0.71 1.39 3.17 5.40 4.76 0.67 0.02 0.01 0.02 0.01 0.00 0.00 0.00 0.00 0.02 0.18 0.20 0.04 0.01 0.05 0.02 0.00 0.00 0.00 0.04 0.10 0.13 0.17 0.32
2.22 1.80 1.68 1.72 1.76 1.83 1.63 1.47 1.40 1.54 1.66 1.72 1.83 1.95 2.28 1.93 2.31 1.48 1.74 3.40 6.07 6.42 2.48 0.40 0.04 0.02 0.01 0.01 0.00 0.00 0.04 0.02 0.07 0.23 0.24 0.07 0.06 0.04 0.01 0.03 0.02 0.03 0.20 0.53 0.51 0.25 0.17
2.19 2.16 2.01 1.80 1.69 1.70 1.73 1.68 1.53 1.49 1.65 1.91 2.23 2.54 2.50 2.10 1.71 2.18 3.81 5.91 7.11 3.62 1.18 0.18 0.05 0.07 0.09 0.04 0.02 0.03 0.13 0.12 0.07 0.09 0.24 0.27 0.16 0.04 0.06 0.05 0.08 0.07 0.31 0.53 0.60 0.21 0.09
2.19 2.14 2.02 1.81 1.57 1.52 1.59 1.75 1.78 1.90 2.00 2.21 2.94 3.31 3.43 2.91 2.72 3.49 5.87 8.94 5.59 1.77 0.34 0.08 0.10 0.23 0.30 0.26 0.16 0.16 0.30 0.34 0.26 0.30 0.80 0.74 0.29 0.03 0.05 0.04 0.19 0.37 0.47 0.18 0.92 0.65 0.69
2.70 2.26 2.11 1.96 1.75 1.60 1.59 1.56 1.90 2.14 2.33 2.61 2.79 3.34 3.28 2.85 3.54 5.13 7.57 6.98 3.16 0.81 0.14 0.11 0.35 0.26 0.27 0.25 0.41 0.46 0.49 0.61 0.43 0.42 0.88 1.29 1.41 0.18 0.09 0.21 0.21 0.38 0.37 1.09 2.28 2.32 1.25
3.36 2.67 2.29 2.21 2.09 1.62 1.53 1.52 1.75 2.13 2.24 2.93 3.46 4.42 3.13 2.72 5.16 8.03 8.68 4.94 2.16 0.64 0.33 0.45 0.35 0.48 0.31 0.30 0.55 0.68 0.75 0.62 0.82 0.36 0.60 1.03 1.70 0.86 0.39 0.43 0.34 0.57 1.05 1.90 2.38 1.96 1.58
3.26 3.38 2.91 2.52 2.63 2.21 1.66 1.76 1.98 2.24 2.82 4.00 4.63 4.81 3.14 3.44 6.38 7.30 5.55 2.87 1.37 0.56 0.58 0.88 0.66 0.38 0.44 0.42 0.50 0.66 0.82 0.87 0.82 0.59 0.56 0.89 1.71 1.23 0.44 0.20 0.23 0.77 1.49 2.58 4.12 3.40 2.81
3.18 3.21 3.49 3.14 3.05 3.23 2.49 2.10 2.31 2.61 3.12 4.06 5.57 4.17 4.11 4.69 5.59 4.24 2.84 2.15 1.36 0.66 0.62 1.29 1.07 0.66 0.56 0.48 1.05 0.60 0.61 0.76 0.95 0.90 0.79 0.94 1.69 1.69 1.01 0.78 0.67 1.35 1.65 2.02 2.90 3.51 3.34
2.74 2.97 2.82 3.35 3.26 3.78 3.47 2.85 2.58 2.79 3.77 4.68 6.45 5.87 6.20 6.19 3.96 2.46 1.90 1.63 1.32 0.72 0.49 0.75 0.97 0.55 0.77 1.09 1.05 1.04 0.59 0.75 0.96 0.80 0.62 1.41 1.09 1.39 1.09 0.82 1.06 1.17 1.00 1.49 2.50 2.99 2.16
2.03 2.47 2.87 2.91 3.52 3.90 4.20 3.89 3.61 3.71 4.44 7.35 8.40 4.59 2.93 3.79 2.71 2.02 1.80 1.79 1.04 1.01 1.02 0.75 0.93 0.64 0.73 1.31 1.19 0.84 0.62 0.99 1.19 0.93 0.81 1.60 1.48 1.25 0.92 0.40 0.48 0.78 0.79 0.81 1.48 1.30 1.66
1.69 1.78 2.35 3.01 3.51 3.43 3.91 4.26 4.09 4.29 5.87 9.66 8.34 2.92 1.54 1.08 0.99 1.67 1.65 1.65 0.90 0.82 1.42 1.20 1.17 0.75 0.75 0.89 0.81 0.93 0.96 0.88 1.15 0.85 1.17 1.85 2.03 1.48 1.52 0.54 0.73 0.97 0.90 0.59 0.82 0.69 0.68
1.53 1.50 1.92 2.52 2.86 2.96 3.55 4.10 4.09 4.25 6.89 11.71 6.64 1.70 2.05 1.60 0.88 1.36 1.57 1.22 0.99 1.24 1.12 0.67 0.87 0.93 0.95 0.95 0.78 0.58 0.69 0.82 0.78 0.86 1.22 1.95 2.68 2.37 2.16 0.69 0.99 1.70 0.88 0.62 0.53 0.30 0.26
1.68 1.61 1.65 2.09 2.25 2.72 3.23 3.56 4.11 4.59 5.53 6.41 3.87 1.83 2.66 2.57 1.18 0.98 0.58 0.59 0.74 0.87 1.85 0.96 0.83 0.93 0.83 0.65 0.85 1.05 1.13 1.13 1.12 1.14 1.30 1.93 1.99 2.66 2.47 1.26 2.33 1.62 0.46 0.44 0.52 0.40 0.19
1.92 1.79 1.83 2.05 2.25 2.46 3.04 3.13 3.65 4.55 4.93 4.58 3.54 2.41 3.07 2.58 1.11 0.85 0.58 0.62 0.59 0.87 1.16 1.37 1.09 0.95 0.75 0.85 1.78 2.44 2.38 2.14 1.54 1.27 1.47 1.66 1.67 2.53 2.37 1.70 1.35 0.43 0.31 0.40 0.87 0.79 0.41
1.95 1.87 1.88 1.97 2.14 2.32 2.67 2.84 2.84 3.82 4.80 4.82 4.22 3.01 3.50 3.70 1.44 0.63 0.64 0.43 0.70 1.11 1.28 1.10 1.23 1.29 1.40 1.82 2.61 2.76 1.98 1.58 1.18 1.02 0.75 1.06 1.65 2.54 2.51 1.99 1.20 0.27 0.12 0.27 0.61 1.49 1.01
1.68 1.72 1.55 1.68 1.96 2.04 2.37 2.65 2.53 2.99 3.99 5.07 4.94 2.93 4.60 4.72 1.27 0.71 1.04 0.82 0.58 0.79 1.18 0.97 1.18 1.49 1.54 2.73 3.39 2.46 1.50 0.69 0.82 0.75 0.95 1.42 2.38 2.81 2.16 2.00 0.64 0.11 0.09 0.22 1.41 1.58 1.11
1.63 1.78 1.52 1.56 1.65 1.72 2.02 2.26 2.35 2.55 3.49 4.33 5.24 2.62 4.27 4.99 1.95 0.90 0.87 0.75 0.57 0.72 1.32 1.19 1.88 1.81 2.23 2.31 2.07 1.99 1.75 1.28 0.99 0.65 0.58 1.05 1.97 2.14 2.04 2.41 1.07 0.33 0.47 1.01 1.36 1.24 1.18
1.59 1.80 1.57 1.54 1.49 1.60 1.73 1.92 2.22 2.43 3.17 3.91 4.82 2.99 3.49 5.51 3.48 1.00 1.02 0.68 0.45 0.52 0.95 1.33 1.54 1.44 1.71 2.12 1.72 1.59 1.46 1.29 1.17 1.25 0.64 0.83 1.08 1.55 1.67 1.38 0.74 0.39 0.51 0.98 1.01 1.07 1.06

GFSGBSN_prec_precacc_237.txt.gz
Total_Precipitation_Accumulation
1.29 1.29 1.21 1.03 0.78 0.51 0.39 0.30 0.25 0.19 0.16 0.12 0.10 0.08 0.07 0.07 0.08 0.06 0.05 0.03 0.04 0.04 0.04 0.05 0.05 0.05 0.04 0.02 0.00 0.00 0.00 0.00 0.00 0.00 0.00 0.00 0.00 0.00 0.00 0.00 0.00 0.00 0.00 0.00 0.01 0.01 0.01
1.05 1.03 1.30 1.55 1.70 1.62 1.42 1.16 0.91 0.74 0.62 0.48 0.37 0.27 0.21 0.15 0.11 0.09 0.09 0.06 0.05 0.05 0.05 0.07 0.08 0.10 0.08 0.03 0.00 0.00 0.00 0.00 0.00 0.00 0.00 0.00 0.00 0.00 0.00 0.00 0.00 0.00 0.00 0.00 0.02 0.00 0.00
1.36 1.30 1.11 1.00 1.16 1.38 1.54 1.56 1.50 1.33 1.17 1.05 0.98 0.87 0.69 0.55 0.37 0.23 0.16 0.10 0.08 0.12 0.14 0.16 0.17 0.14 0.10 0.01 0.00 0.00 0.00 0.00 0.00 0.00 0.00 0.00 0.00 0.00 0.00 0.00 0.00 0.00 0.00 0.00 0.00 0.01 0.01
1.44 1.46 1.51 1.46 1.24 1.12 1.15 1.30 1.32 1.32 1.36 1.26 1.25 1.12 0.95 0.75 0.63 0.48 0.30 0.20 0.17 0.13 0.17 0.30 0.37 0.25 0.13 0.00 0.00 0.00 0.00 0.00 0.00 0.00 0.00 0.00 0.00 0.00 0.00 0.00 0.00 0.00 0.00 0.00 0.00 0.01 0.02
1.15 1.18 1.31 1.46 1.51 1.45 1.41 1.40 1.46 1.41 1.29 1.29 1.33 1.37 1.20 1.02 0.76 0.53 0.43 0.33 0.24 0.26 0.33 0.35 0.45 0.35 0.08 0.00 0.00 0.00 0.00 0.02 0.00 0.00 0.00 0.00 0.00 0.00 0.00 0.00 0.00 0.00 0.00 0.00 0.00 0.00 0.01
1.31 1.16 1.08 1.07 1.09 1.13 1.15 1.21 1.33 1.41 1.45 1.33 1.36 1.41 1.43 1.35 1.21 1.01 0.79 0.60 0.48 0.52 0.60 0.68 0.58 0.29 0.03 0.00 0.00 0.00 0.00 0.02 0.01 0.00 0.00 0.00 0.00 0.00 0.00 0.00 0.00 0.00 0.00 0.00 0.02 0.07 0.00
1.95 1.80 1.56 1.41 1.24 1.04 0.95 1.00 1.08 1.12 1.24 1.28 1.20 1.22 1.25 1.31 1.37 1.45 1.28 1.22 1.09 0.94 0.72 0.36 0.21 0.08 0.00 0.00 0.00 0.00 0.00 0.00 0.00 0.00 0.02 0.00 0.02 0.01 0.00 0.00 0.00 0.00 0.00 0.00 0.00 0.00 0.00
1.97 1.88 1.81 1.75 1.64 1.57 1.45 1.30 1.10 1.01 1.00 1.16 1.40 1.40 1.21 1.19 1.36 1.58 1.46 1.31 0.91 0.70 0.59 0.09 0.02 0.01 0.01 0.00 0.00 0.00 0.00 0.03 0.02 0.03 0.03 0.04 0.03 0.00 0.00 0.00 0.00 0.00 0.00 0.00 0.00 0.00 0.00
1.84 1.88 1.78 1.70 1.67 1.58 1.53 1.50 1.39 1.09 0.88 0.96 1.19 1.56 1.73 1.61 1.75 1.94 1.81 1.30 0.65 0.61 0.95 0.25 0.06 0.03 0.02 0.01 0.03 0.02 0.00 0.02 0.06 0.03 0.04 0.04 0.02 0.00 0.00 0.00 0.00 0.00 0.00 0.00 0.00 0.00 0.00
1.75 1.68 1.68 1.72 1.80 1.79 1.72 1.63 1.36 1.11 1.07 1.15 1.24 1.60 1.95 2.50 3.20 2.16 1.95 0.99 0.84 1.35 1.55 0.57 0.08 0.04 0.03 0.03 0.06 0.00 0.00 0.01 0.06 0.05 0.11 0.17 0.00 0.01 0.01 0.00 0.01 0.01 0.00 0.01 0.00 0.04 0.01
1.76 1.78 1.72 1.66 1.66 1.65 1.65 1.71 1.69 1.50 1.28 1.24 1.35 1.71 2.12 2.58 2.22 2.15 1.42 0.70 1.53 2.28 3.59 0.79 0.04 0.00 0.05 0.03 0.02 0.02 0.00 0.00 0.02 0.11 0.35 0.16 0.01 0.01 0.00 0.00 0.01 0.01 0.00 0.02 0.03 0.06 0.12
1.68 1.71 1.81 1.85 1.66 1.51 1.51 1.57 1.56 1.53 1.54 1.50 1.49 1.69 2.36 2.57 2.31 1.26 0.71 1.40 3.18 5.43 4.77 0.67 0.02 0.01 0.02 0.01 0.01 0.01 0.03 0.00 0.02 0.18 0.22 0.04 0.01 0.05 0.02 0.00 0.00 0.00 0.04 0.10 0.13 0.17 0.33
2.22 1.80 1.68 1.72 1.76 1.83 1.63 1.47 1.40 1.54 1.66 1.72 1.83 1.95 2.28 1.93 2.31 1.48 1.74 3.40 6.08 6.42 2.48 0.40 0.04 0.02 0.01 0.01 0.00 0.03 0.10 0.05 0.09 0.24 0.24 0.07 0.06 0.04 0.01 0.04 0.02 0.04 0.24 0.60 0.60 0.29 0.17
2.20 2.16 2.01 1.80 1.69 1.70 1.73 1.68 1.53 1.49 1.65 1.91 2.23 2.54 2.50 2.10 1.71 2.18 3.81 5.91 7.12 3.62 1.18 0.18 0.05 0.07 0.09 0.04 0.02 0.03 0.15 0.15 0.08 0.09 0.27 0.30 0.18 0.04 0.06 0.05 0.09 0.07 0.33 0.57 0.61 0.21 0.09
2.19 2.14 2.02 1.81 1.57 1.52 1.59 1.75 1.78 1.90 2.00 2.21 2.94 3.31 3.43 2.91 2.72 3.49 5.87 8.95 5.59 1.77 0.34 0.08 0.10 0.23 0.30 0.26 0.16 0.16 0.31 0.36 0.27 0.30 0.83 0.77 0.35 0.05 0.05 0.04 0.22 0.39 0.49 0.19 0.93 0.66 0.69
2.71 2.27 2.11 1.96 1.75 1.60 1.59 1.56 1.90 2.14 2.33 2.61 2.79 3.34 3.28 2.85 3.54 5.13 7.57 6.98 3.16 0.81 0.14 0.11 0.35 0.26 0.27 0.25 0.41 0.47 0.51 0.62 0.44 0.42 0.88 1.30 1.42 0.20 0.09 0.21 0.24 0.42 0.40 1.14 2.38 2.42 1.27
3.36 2.67 2.29 2.21 2.09 1.62 1.53 1.52 1.75 2.13 2.24 2.93 3.46 4.42 3.13 2.72 5.16 8.03 8.68 4.94 2.16 0.64 0.33 0.45 0.35 0.48 0.31 0.31 0.56 0.70 0.76 0.63 0.83 0.36 0.60 1.03 1.70 0.86 0.39 0.45 0.42 0.66 1.17 2.17 2.57 2.03 1.61
3.27 3.39 2.91 2.52 2.63 2.21 1.66 1.76 1.98 2.24 2.82 4.00 4.63 4.81 3.14 3.44 6.38 7.30 5.55 2.87 1.37 0.56 0.58 0.88 0.66 0.38 0.44 0.43 0.51 0.67 0.84 0.88 0.82 0.59 0.57 0.89 1.72 1.24 0.44 0.20 0.23 0.78 1.59 2.73 4.48 3.76 3.06
3.18 3.22 3.49 3.14 3.05 3.23 2.49 2.10 2.31 2.61 3.12 4.06 5.57 4.17 4.11 4.69 5.60 4.24 2.84 2.15 1.36 0.66 0.62 1.29 1.07 0.66 0.56 0.49 1.06 0.61 0.63 0.77 0.95 0.90 0.80 0.94 1.73 1.70 1.04 0.83 0.69 1.35 1.66 2.03 2.96 3.65 3.51
2.74 2.97 2.82 3.35 3.26 3.78 3.47 2.85 2.58 2.79 3.77 4.68 6.45 5.87 6.21 6.19 3.96 2.46 1.90 1.63 1.32 0.72 0.49 0.75 0.97 0.55 0.78 1.10 1.06 1.05 0.60 0.76 0.96 0.80 0.63 1.45 1.11 1.40 1.11 0.88 1.08 1.17 1.00 1.49 2.50 3.02 2.18
2.03 2.47 2.87 2.92 3.52 3.90 4.20 3.89 3.61 3.71 4.44 7.35 8.40 4.59 2.93 3.79 2.71 2.02 1.80 1.79 1.04 1.01 1.02 0.75 0.93 0.65 0.75 1.32 1.19 0.84 0.62 0.99 1.19 0.93 0.84 1.66 1.49 1.25 0.92 0.40 0.48 0.78 0.79 0.81 1.48 1.30 1.66
1.69 1.78 2.35 3.01 3.51 3.43 3.91 4.26 4.09 4.29 5.87 9.66 8.34 2.92 1.54 1.08 0.99 1.67 1.65 1.65 0.90 0.82 1.42 1.21 1.18 0.77 0.77 0.91 0.83 0.94 0.97 0.89 1.15 0.85 1.19 1.88 2.03 1.48 1.52 0.54 0.73 0.97 0.90 0.59 0.82 0.69 0.68
1.54 1.50 1.92 2.52 2.87 2.96 3.55 4.10 4.09 4.25 6.89 11.72 6.64 1.70 2.05 1.61 0.88 1.36 1.57 1.22 0.99 1.24 1.13 0.67 0.88 0.94 0.96 0.96 0.78 0.58 0.69 0.82 0.78 0.86 1.22 1.98 2.71 2.39 2.17 0.69 0.99 1.70 0.88 0.62 0.53 0.30 0.26
1.69 1.61 1.66 2.09 2.26 2.74 3.24 3.56 4.11 4.59 5.53 6.41 3.87 1.83 2.67 2.57 1.18 0.98 0.58 0.59 0.74 0.87 1.85 0.96 0.83 0.94 0.83 0.65 0.85 1.05 1.13 1.13 1.12 1.14 1.31 1.94 2.03 2.73 2.49 1.28 2.35 1.62 0.46 0.44 0.52 0.40 0.19
1.93 1.80 1.84 2.05 2.26 2.48 3.05 3.13 3.65 4.56 4.93 4.59 3.55 2.42 3.09 2.59 1.11 0.85 0.58 0.62 0.59 0.87 1.16 1.37 1.09 0.95 0.75 0.85 1.79 2.45 2.38 2.14 1.54 1.27 1.47 1.66 1.71 2.62 2.42 1.73 1.36 0.43 0.31 0.40 0.87 0.79 0.41
1.96 1.88 1.89 1.97 2.14 2.33 2.68 2.86 2.85 3.83 4.81 4.85 4.24 3.04 3.55 3.75 1.44 0.63 0.64 0.43 0.70 1.12 1.28 1.10 1.23 1.29 1.41 1.83 2.62 2.76 1.98 1.58 1.18 1.02 0.75 1.07 1.67 2.62 2.57 2.05 1.22 0.27 0.12 0.27 0.61 1.50 1.01
1.69 1.73 1.56 1.69 1.96 2.05 2.38 2.66 2.54 2.99 4.00 5.10 4.97 2.97 4.65 4.78 1.28 0.71 1.05 0.83 0.58 0.79 1.18 0.97 1.18 1.49 1.55 2.76 3.41 2.47 1.50 0.69 0.82 0.75 0.96 1.45 2.42 2.88 2.20 2.06 0.66 0.11 0.09 0.22 1.41 1.58 1.11
1.65 1.79 1.53 1.57 1.66 1.72 2.02 2.27 2.36 2.56 3.49 4.35 5.26 2.65 4.31 5.04 1.96 0.91 0.87 0.75 0.57 0.72 1.33 1.19 1.89 1.82 2.24 2.33 2.08 2.00 1.76 1.29 1.00 0.65 0.59 1.07 2.02 2.20 2.12 2.48 1.09 0.33 0.47 1.02 1.36 1.24 1.18
1.61 1.81 1.59 1.55 1.49 1.60 1.73 1.92 2.22 2.43 3.18 3.93 4.85 3.00 3.53 5.57 3.50 1.01 1.03 0.68 0.45 0.52 0.95 1.34 1.56 1.45 1.72 2.15 1.75 1.64 1.49 1.32 1.18 1.26 0.64 0.83 1.08 1.56 1.70 1.40 0.74 0.39 0.51 0.98 1.01 1.07 1.06

GFSGBSN_prec_precacc_243.txt.gz
Total_Precipitation_Accumulation
1.29 1.29 1.21 1.03 0.78 0.51 0.39 0.30 0.25 0.19 0.16 0.12 0.10 0.08 0.07 0.07 0.08 0.06 0.05 0.03 0.04 0.04 0.04 0.05 0.05 0.05 0.04 0.02 0.00 0.00 0.00 0.00 0.00 0.00 0.00 0.00 0.00 0.00 0.00 0.00 0.00 0.00 0.00 0.00 0.01 0.01 0.01
1.05 1.03 1.30 1.55 1.70 1.62 1.42 1.16 0.91 0.74 0.62 0.48 0.37 0.27 0.21 0.15 0.11 0.09 0.09 0.06 0.05 0.05 0.05 0.07 0.08 0.10 0.08 0.03 0.00 0.00 0.00 0.00 0.00 0.00 0.00 0.00 0.00 0.00 0.00 0.00 0.00 0.00 0.00 0.00 0.02 0.00 0.00
1.36 1.30 1.11 1.00 1.16 1.38 1.54 1.56 1.50 1.33 1.17 1.05 0.98 0.87 0.69 0.55 0.37 0.23 0.16 0.10 0.08 0.12 0.14 0.16 0.17 0.14 0.10 0.01 0.00 0.00 0.00 0.00 0.00 0.00 0.00 0.00 0.00 0.00 0.00 0.00 0.00 0.00 0.00 0.00 0.00 0.01 0.01
1.44 1.46 1.51 1.46 1.24 1.12 1.15 1.30 1.32 1.32 1.36 1.26 1.25 1.12 0.95 0.75 0.63 0.48 0.30 0.20 0.17 0.13 0.17 0.30 0.37 0.25 0.13 0.00 0.00 0.00 0.00 0.00 0.00 0.00 0.00 0.00 0.00 0.00 0.00 0.00 0.00 0.00 0.00 0.00 0.00 0.01 0.02
1.16 1.19 1.31 1.46 1.51 1.45 1.41 1.40 1.46 1.41 1.29 1.29 1.33 1.37 1.20 1.02 0.76 0.53 0.43 0.33 0.24 0.26 0.33 0.35 0.45 0.36 0.09 0.00 0.00 0.00 0.00 0.02 0.00 0.00 0.00 0.00 0.00 0.00 0.00 0.00 0.00 0.00 0.00 0.00 0.00 0.00 0.01
1.32 1.16 1.08 1.07 1.09 1.14 1.15 1.21 1.33 1.41 1.45 1.33 1.36 1.41 1.43 1.35 1.21 1.01 0.79 0.60 0.48 0.52 0.60 0.68 0.58 0.29 0.04 0.00 0.00 0.00 0.00 0.02 0.01 0.00 0.00 0.00 0.00 0.01 0.00 0.01 0.01 0.00 0.00 0.00 0.02 0.07 0.00
1.96 1.80 1.56 1.42 1.24 1.04 0.96 1.01 1.08 1.12 1.24 1.28 1.20 1.22 1.25 1.31 1.37 1.45 1.28 1.22 1.09 0.94 0.72 0.36 0.21 0.08 0.00 0.00 0.00 0.00 0.00 0.00 0.00 0.00 0.02 0.00 0.02 0.01 0.00 0.00 0.00 0.00 0.00 0.00 0.00 0.00 0.00
1.98 1.88 1.81 1.75 1.65 1.57 1.45 1.31 1.10 1.01 1.00 1.16 1.40 1.40 1.21 1.19 1.36 1.58 1.46 1.31 0.92 0.70 0.59 0.09 0.02 0.01 0.01 0.00 0.00 0.00 0.01 0.04 0.03 0.03 0.03 0.04 0.03 0.00 0.00 0.00 0.00 0.01 0.00 0.00 0.00 0.00 0.00
1.84 1.88 1.78 1.70 1.67 1.58 1.54 1.51 1.39 1.09 0.88 0.96 1.19 1.56 1.73 1.61 1.75 1.94 1.81 1.30 0.65 0.61 0.96 0.25 0.06 0.03 0.02 0.01 0.03 0.03 0.00 0.02 0.07 0.06 0.05 0.04 0.02 0.00 0.00 0.00 0.00 0.00 0.00 0.00 0.00 0.00 0.00
1.76 1.68 1.68 1.72 1.81 1.80 1.72 1.63 1.36 1.11 1.07 1.15 1.24 1.60 1.95 2.50 3.20 2.16 1.95 0.99 0.84 1.36 1.56 0.57 0.08 0.04 0.03 0.03 0.06 0.00 0.00 0.01 0.08 0.08 0.14 0.18 0.00 0.01 0.01 0.00 0.01 0.01 0.00 0.01 0.00 0.04 0.01
1.77 1.78 1.72 1.66 1.66 1.65 1.65 1.71 1.69 1.50 1.28 1.24 1.35 1.71 2.12 2.58 2.22 2.15 1.42 0.70 1.53 2.29 3.60 0.80 0.04 0.00 0.05 0.03 0.02 0.02 0.00 0.02 0.05 0.14 0.44 0.23 0.02 0.02 0.01 0.00 0.01 0.01 0.00 0.02 0.03 0.06 0.13
1.68 1.71 1.81 1.85 1.66 1.51 1.51 1.57 1.56 1.53 1.54 1.50 1.49 1.69 2.36 2.57 2.31 1.26 0.71 1.40 3.18 5.44 4.78 0.67 0.02 0.01 0.02 0.01 0.01 0.01 0.04 0.03 0.03 0.19 0.24 0.05 0.01 0.06 0.02 0.00 0.00 0.00 0.04 0.10 0.13 0.22 0.39
2.22 1.80 1.68 1.72 1.76 1.83 1.63 1.47 1.40 1.54 1.66 1.72 1.83 1.95 2.28 1.93 2.31 1.48 1.74 3.41 6.09 6.43 2.48 0.40 0.04 0.02 0.01 0.01 0.00 0.03 0.11 0.09 0.14 0.28 0.26 0.08 0.07 0.05 0.02 0.04 0.02 0.04 0.25 0.69 0.71 0.53 0.37
2.20 2.16 2.01 1.80 1.69 1.70 1.73 1.68 1.53 1.49 1.65 1.91 2.23 2.54 2.50 2.10 1.71 2.18 3.81 5.91 7.12 3.62 1.18 0.18 0.05 0.07 0.09 0.04 0.02 0.03 0.15 0.15 0.08 0.10 0.31 0.40 0.35 0.13 0.11 0.06 0.10 0.08 0.36 0.71 0.71 0.25 0.09
2.19 2.15 2.02 1.81 1.57 1.52 1.59 1.75 1.78 1.90 2.00 2.21 2.94 3.31 3.43 2.91 2.72 3.49 5.88 8.95 5.59 1.77 0.34 0.08 0.10 0.23 0.30 0.26 0.16 0.17 0.32 0.37 0.28 0.31 0.86 0.88 0.59 0.25 0.10 0.05 0.22 0.41 0.52 0.21 1.02 0.71 0.72
2.71 2.27 2.11 1.96 1.75 1.60 1.59 1.56 1.90 2.14 2.33 2.61 2.79 3.34 3.28 2.85 3.54 5.13 7.58 6.98 3.16 0.81 0.14 0.11 0.35 0.26 0.27 0.25 0.41 0.47 0.52 0.62 0.45 0.42 0.89 1.33 1.44 0.26 0.16 0.23 0.28 0.47 0.45 1.20 2.57 2.67 1.37
3.37 2.67 2.29 2.21 2.09 1.62 1.53 1.52 1.75 2.13 2.24 2.93 3.46 4.42 3.13 2.72 5.16 8.04 8.69 4.94 2.16 0.64 0.33 0.45 0.35 0.48 0.31 0.31 0.56 0.70 0.77 0.64 0.83 0.36 0.60 1.03 1.71 0.87 0.42 0.58 0.61 0.77 1.28 2.27 2.70 2.23 1.76
3.27 3.39 2.91 2.52 2.63 2.21 1.66 1.76 1.98 2.24 2.82 4.00 4.63 4.81 3.14 3.44 6.39 7.31 5.55 2.87 1.37 0.56 0.58 0.88 0.66 0.38 0.44 0.43 0.51 0.67 0.84 0.89 0.82 0.59 0.57 0.89 1.72 1.24 0.47 0.25 0.31 0.89 1.70 2.79 4.60 3.94 3.22
3.18 3.22 3.50 3.15 3.05 3.23 2.49 2.10 2.31 2.61 3.12 4.06 5.58 4.17 4.11 4.69 5.61 4.25 2.84 2.15 1.36 0.66 0.62 1.29 1.07 0.66 0.56 0.49 1.07 0.61 0.63 0.77 0.95 0.90 0.80 0.94 1.75 1.72 1.10 0.92 0.71 1.37 1.68 2.06 2.98 3.69 3.61
2.74 2.98 2.83 3.36 3.26 3.78 3.47 2.85 2.58 2.79 3.77 4.68 6.45 5.87 6.21 6.19 3.96 2.46 1.90 1.63 1.32 0.72 0.49 0.75 0.97 0.55 0.78 1.11 1.06 1.05 0.60 0.76 0.96 0.80 0.63 1.46 1.12 1.41 1.17 1.00 1.10 1.17 1.00 1.51 2.52 3.03 2.20
2.04 2.48 2.88 2.92 3.53 3.90 4.20 3.89 3.61 3.71 4.44 7.35 8.41 4.59 2.93 3.79 2.71 2.02 1.80 1.79 1.04 1.01 1.02 0.75 0.93 0.65 0.75 1.33 1.20 0.85 0.63 0.99 1.19 0.93 0.84 1.68 1.50 1.25 0.92 0.40 0.48 0.78 0.79 0.81 1.49 1.30 1.67
1.70 1.78 2.36 3.02 3.52 3.43 3.91 4.26 4.09 4.29 5.87 9.66 8.34 2.92 1.54 1.08 0.99 1.67 1.65 1.65 0.90 0.82 1.43 1.21 1.18 0.77 0.77 0.92 0.84 0.95 0.98 0.89 1.15 0.85 1.19 1.89 2.04 1.49 1.52 0.54 0.73 0.97 0.90 0.59 0.82 0.69 0.68
1.55 1.51 1.93 2.53 2.87 2.97 3.55 4.10 4.09 4.25 6.89 11.72 6.64 1.70 2.05 1.61 0.88 1.36 1.57 1.22 0.99 1.24 1.13 0.67 0.88 0.94 0.96 0.96 0.78 0.58 0.69 0.83 0.78 0.86 1.22 1.99 2.72 2.42 2.18 0.69 0.99 1.70 0.88 0.62 0.53 0.30 0.26
1.70 1.62 1.66 2.10 2.26 2.74 3.25 3.56 4.11 4.59 5.53 6.41 3.87 1.83 2.67 2.57 1.18 0.98 0.58 0.59 0.74 0.87 1.85 0.96 0.83 0.94 0.83 0.65 0.85 1.05 1.13 1.13 1.12 1.14 1.31 1.95 2.04 2.76 2.51 1.28 2.36 1.63 0.46 0.44 0.52 0.40 0.19
1.93 1.80 1.85 2.06 2.27 2.49 3.07 3.14 3.65 4.56 4.93 4.60 3.55 2.42 3.10 2.60 1.11 0.85 0.58 0.62 0.59 0.87 1.16 1.37 1.09 0.95 0.75 0.85 1.80 2.45 2.38 2.14 1.54 1.27 1.47 1.66 1.72 2.67 2.45 1.75 1.37 0.43 0.31 0.40 0.87 0.79 0.41
1.97 1.88 1.89 1.98 2.15 2.34 2.69 2.88 2.86 3.83 4.81 4.85 4.25 3.04 3.57 3.76 1.45 0.63 0.64 0.43 0.70 1.12 1.29 1.10 1.23 1.29 1.41 1.83 2.64 2.77 1.99 1.58 1.18 1.02 0.75 1.07 1.68 2.68 2.62 2.13 1.26 0.29 0.13 0.28 0.61 1.50 1.02
1.71 1.74 1.57 1.70 1.97 2.06 2.39 2.67 2.56 2.99 4.00 5.11 4.98 2.98 4.67 4.80 1.28 0.71 1.05 0.83 0.58 0.79 1.18 0.98 1.18 1.50 1.55 2.78 3.44 2.49 1.51 0.70 0.83 0.75 0.96 1.46 2.44 2.89 2.21 2.09 0.67 0.11 0.09 0.22 1.43 1.60 1.11
1.68 1.81 1.54 1.57 1.67 1.73 2.03 2.28 2.38 2.57 3.50 4.35 5.27 2.67 4.35 5.07 1.96 0.91 0.87 0.75 0.57 0.72 1.33 1.20 1.89 1.82 2.25 2.35 2.10 2.01 1.78 1.29 1.00 0.65 0.59 1.08 2.04 2.23 2.16 2.54 1.13 0.33 0.48 1.02 1.37 1.24 1.18
1.63 1.84 1.60 1.55 1.50 1.61 1.74 1.93 2.24 2.44 3.19 3.93 4.85 3.02 3.57 5.61 3.51 1.01 1.03 0.68 0.45 0.52 0.95 1.34 1.56 1.45 1.73 2.17 1.78 1.69 1.51 1.33 1.19 1.26 0.64 0.84 1.09 1.57 1.71 1.41 0.74 0.40 0.52 0.98 1.01 1.07 1.06

GFSGBSN_prec_precacc_249.txt.gz
Total_Precipitation_Accumulation
1.29 1.29 1.21 1.03 0.78 0.51 0.39 0.30 0.25 0.19 0.16 0.12 0.10 0.08 0.07 0.07 0.08 0.06 0.05 0.03 0.04 0.04 0.04 0.05 0.05 0.05 0.04 0.02 0.00 0.00 0.00 0.00 0.00 0.00 0.00 0.00 0.00 0.00 0.00 0.00 0.00 0.00 0.00 0.00 0.01 0.01 0.01
1.05 1.03 1.30 1.55 1.70 1.62 1.42 1.16 0.91 0.74 0.62 0.48 0.37 0.27 0.21 0.15 0.11 0.09 0.09 0.06 0.05 0.05 0.05 0.07 0.08 0.10 0.08 0.03 0.00 0.00 0.00 0.00 0.00 0.00 0.00 0.00 0.00 0.00 0.00 0.00 0.00 0.00 0.00 0.00 0.02 0.00 0.00
1.36 1.30 1.11 1.00 1.16 1.38 1.54 1.56 1.50 1.33 1.17 1.05 0.98 0.87 0.69 0.55 0.37 0.23 0.16 0.10 0.08 0.12 0.14 0.16 0.17 0.14 0.10 0.01 0.00 0.00 0.00 0.00 0.00 0.00 0.00 0.00 0.00 0.00 0.00 0.00 0.00 0.00 0.00 0.00 0.00 0.01 0.01
1.44 1.46 1.52 1.46 1.24 1.12 1.15 1.30 1.32 1.32 1.36 1.26 1.25 1.12 0.95 0.75 0.63 0.48 0.30 0.20 0.17 0.13 0.17 0.30 0.37 0.25 0.13 0.00 0.00 0.00 0.00 0.00 0.00 0.00 0.00 0.00 0.00 0.00 0.00 0.00 0.00 0.00 0.00 0.00 0.00 0.01 0.02
1.17 1.19 1.31 1.46 1.51 1.45 1.41 1.40 1.46 1.41 1.29 1.29 1.33 1.37 1.20 1.02 0.76 0.53 0.43 0.33 0.24 0.26 0.33 0.35 0.45 0.36 0.09 0.00 0.00 0.00 0.00 0.02 0.00 0.00 0.00 0.00 0.00 0.00 0.00 0.00 0.01 0.00 0.00 0.00 0.00 0.00 0.01
1.32 1.16 1.08 1.07 1.10 1.14 1.15 1.22 1.34 1.41 1.45 1.33 1.36 1.41 1.43 1.35 1.21 1.01 0.79 0.60 0.48 0.52 0.60 0.68 0.58 0.29 0.04 0.00 0.00 0.00 0.00 0.02 0.01 0.00 0.00 0.00 0.00 0.01 0.00 0.01 0.01 0.00 0.00 0.00 0.02 0.07 0.00
1.96 1.80 1.56 1.42 1.24 1.05 0.97 1.02 1.09 1.13 1.24 1.28 1.20 1.22 1.25 1.31 1.37 1.45 1.28 1.22 1.09 0.94 0.72 0.36 0.21 0.08 0.00 0.00 0.00 0.00 0.00 0.00 0.00 0.00 0.02 0.00 0.02 0.01 0.00 0.00 0.00 0.01 0.01 0.00 0.00 0.00 0.00
1.99 1.89 1.82 1.75 1.65 1.57 1.45 1.31 1.11 1.01 1.00 1.16 1.40 1.40 1.21 1.19 1.36 1.58 1.46 1.31 0.92 0.70 0.59 0.09 0.02 0.01 0.01 0.00 0.00 0.00 0.01 0.04 0.03 0.03 0.03 0.04 0.03 0.00 0.00 0.00 0.00 0.02 0.03 0.01 0.01 0.01 0.00
1.85 1.88 1.78 1.70 1.67 1.58 1.54 1.51 1.39 1.09 0.88 0.96 1.19 1.56 1.73 1.61 1.75 1.94 1.81 1.30 0.65 0.61 0.96 0.25 0.06 0.03 0.02 0.01 0.03 0.03 0.00 0.02 0.07 0.06 0.06 0.05 0.02 0.00 0.02 0.01 0.01 0.01 0.05 0.02 0.03 0.01 0.00
1.76 1.69 1.68 1.73 1.81 1.80 1.72 1.63 1.36 1.11 1.07 1.15 1.24 1.60 1.95 2.50 3.20 2.16 1.95 0.99 0.84 1.36 1.56 0.57 0.08 0.04 0.03 0.03 0.06 0.00 0.00 0.01 0.08 0.08 0.15 0.20 0.03 0.03 0.03 0.01 0.02 0.01 0.00 0.01 0.02 0.09 0.06
1.77 1.78 1.73 1.67 1.66 1.65 1.65 1.71 1.69 1.50 1.28 1.24 1.35 1.71 2.12 2.58 2.22 2.15 1.42 0.70 1.53 2.29 3.60 0.80 0.04 0.00 0.05 0.03 0.02 0.02 0.00 0.02 0.05 0.15 0.46 0.25 0.03 0.05 0.06 0.02 0.04 0.02 0.00 0.02 0.03 0.09 0.20
1.68 1.71 1.81 1.85 1.66 1.51 1.51 1.57 1.56 1.53 1.54 1.50 1.49 1.69 2.36 2.57 2.31 1.26 0.71 1.40 3.18 5.44 4.78 0.67 0.02 0.01 0.02 0.01 0.01 0.01 0.04 0.03 0.03 0.20 0.25 0.06 0.02 0.12 0.18 0.01 0.02 0.02 0.04 0.10 0.14 0.27 0.57
2.23 1.80 1.68 1.72 1.76 1.83 1.63 1.47 1.40 1.54 1.66 1.72 1.83 1.95 2.28 1.93 2.31 1.48 1.74 3.41 6.09 6.43 2.48 0.40 0.04 0.02 0.01 0.01 0.00 0.03 0.11 0.09 0.14 0.28 0.26 0.09 0.11 0.07 0.14 0.13 0.04 0.08 0.27 0.72 0.74 0.64 0.47
2.21 2.17 2.02 1.81 1.69 1.70 1.73 1.68 1.53 1.49 1.65 1.91 2.23 2.54 2.50 2.10 1.71 2.18 3.81 5.91 7.12 3.62 1.18 0.18 0.05 0.07 0.09 0.04 0.02 0.03 0.15 0.15 0.08 0.10 0.31 0.40 0.36 0.14 0.22 0.24 0.12 0.09 0.38 0.75 0.74 0.29 0.10
2.21 2.16 2.03 1.83 1.58 1.52 1.59 1.75 1.78 1.90 2.00 2.21 2.94 3.31 3.43 2.91 2.72 3.49 5.88 8.95 5.59 1.77 0.34 0.08 0.10 0.23 0.30 0.26 0.16 0.17 0.32 0.37 0.28 0.31 0.86 0.89 0.59 0.25 0.18 0.17 0.23 0.49 0.63 0.23 1.05 0.73 0.76
2.72 2.28 2.13 1.98 1.76 1.61 1.59 1.56 1.90 2.14 2.33 2.61 2.79 3.34 3.28 2.85 3.54 5.13 7.58 6.98 3.16 0.81 0.14 0.11 0.35 0.26 0.27 0.25 0.41 0.47 0.52 0.62 0.45 0.42 0.89 1.33 1.44 0.27 0.21 0.36 0.31 0.56 0.59 1.36 2.66 2.71 1.46
3.38 2.68 2.31 2.23 2.11 1.63 1.53 1.52 1.75 2.13 2.24 2.93 3.46 4.42 3.13 2.72 5.16 8.04 8.69 4.94 2.16 0.64 0.33 0.45 0.35 0.48 0.31 0.31 0.56 0.70 0.77 0.64 0.83 0.36 0.60 1.03 1.71 0.87 0.45 0.65 0.63 0.78 1.38 2.57 2.98 2.29 1.90
3.29 3.40 2.93 2.54 2.64 2.22 1.67 1.76 1.98 2.24 2.82 4.00 4.63 4.81 3.14 3.44 6.39 7.31 5.55 2.87 1.37 0.56 0.58 0.88 0.66 0.38 0.44 0.43 0.51 0.67 0.84 0.89 0.82 0.59 0.57 0.89 1.72 1.29 0.53 0.27 0.31 0.89 1.70 2.83 4.87 4.11 3.25
3.20 3.24 3.51 3.16 3.06 3.25 2.50 2.10 2.31 2.61 3.12 4.06 5.58 4.17 4.11 4.69 5.61 4.25 2.84 2.15 1.36 0.66 0.62 1.29 1.07 0.66 0.56 0.49 1.07 0.61 0.63 0.77 0.95 0.90 0.80 0.94 1.75 1.72 1.12 0.92 0.71 1.37 1.68 2.07 2.99 3.73 3.66
2.76 2.99 2.84 3.37 3.27 3.79 3.49 2.86 2.58 2.80 3.77 4.68 6.45 5.87 6.21 6.19 3.96 2.46 1.90 1.63 1.32 0.72 0.49 0.75 0.97 0.55 0.78 1.11 1.06 1.05 0.60 0.76 0.96 0.80 0.63 1.46 1.13 1.42 1.18 1.00 1.10 1.17 1.00 1.51 2.52 3.03 2.20
2.06 2.49 2.89 2.94 3.54 3.91 4.21 3.91 3.61 3.72 4.44 7.35 8.41 4.59 2.93 3.79 2.71 2.02 1.80 1.79 1.04 1.01 1.02 0.75 0.93 0.65 0.75 1.33 1.20 0.85 0.63 0.99 1.19 0.93 0.84 1.68 1.50 1.25 0.92 0.40 0.48 0.78 0.79 0.81 1.49 1.30 1.67
1.73 1.80 2.37 3.03 3.53 3.44 3.93 4.27 4.10 4.30 5.88 9.66 8.34 2.92 1.54 1.08 0.99 1.67 1.65 1.65 0.90 0.82 1.43 1.21 1.18 0.77 0.77 0.92 0.84 0.95 0.98 0.89 1.15 0.85 1.19 1.89 2.04 1.49 1.52 0.54 0.73 0.97 0.90 0.59 0.82 0.69 0.68
1.57 1.53 1.94 2.54 2.88 2.98 3.57 4.12 4.11 4.27 6.90 11.72 6.64 1.70 2.05 1.61 0.88 1.36 1.57 1.22 0.99 1.24 1.13 0.67 0.88 0.94 0.96 0.96 0.78 0.58 0.69 0.83 0.78 0.86 1.22 1.99 2.72 2.42 2.18 0.69 0.99 1.70 0.88 0.62 0.53 0.30 0.26
1.74 1.64 1.68 2.11 2.27 2.76 3.26 3.59 4.13 4.61 5.53 6.41 3.87 1.83 2.67 2.57 1.18 0.98 0.58 0.59 0.74 0.87 1.85 0.96 0.83 0.94 0.83 0.65 0.85 1.05 1.13 1.13 1.12 1.14 1.31 1.95 2.04 2.76 2.51 1.28 2.36 1.63 0.46 0.44 0.52 0.40 0.19
2.01 1.84 1.86 2.07 2.27 2.50 3.09 3.17 3.67 4.57 4.94 4.60 3.55 2.42 3.10 2.60 1.11 0.85 0.58 0.62 0.59 0.87 1.16 1.37 1.09 0.95 0.75 0.85 1.80 2.45 2.38 2.14 1.54 1.27 1.47 1.66 1.72 2.67 2.45 1.75 1.37 0.43 0.32 0.40 0.87 0.79 0.41
2.08 1.91 1.92 2.00 2.16 2.34 2.71 2.90 2.88 3.84 4.82 4.86 4.25 3.04 3.57 3.76 1.45 0.63 0.64 0.43 0.70 1.12 1.29 1.10 1.23 1.29 1.41 1.83 2.64 2.77 1.99 1.58 1.18 1.02 0.75 1.07 1.68 2.68 2.62 2.13 1.26 0.29 0.13 0.28 0.61 1.50 1.02
1.89 1.81 1.59 1.72 1.98 2.06 2.40 2.69 2.59 3.00 4.02 5.11 4.98 2.98 4.67 4.80 1.28 0.71 1.05 0.83 0.58 0.79 1.18 0.98 1.18 1.50 1.55 2.78 3.44 2.49 1.51 0.70 0.83 0.75 0.96 1.46 2.44 2.89 2.21 2.09 0.67 0.11 0.09 0.22 1.43 1.60 1.11
1.87 1.90 1.57 1.59 1.68 1.74 2.04 2.30 2.41 2.60 3.51 4.35 5.27 2.67 4.35 5.07 1.96 0.91 0.87 0.75 0.57 0.72 1.33 1.20 1.89 1.82 2.25 2.35 2.10 2.01 1.78 1.29 1.00 0.65 0.59 1.08 2.04 2.23 2.16 2.54 1.13 0.33 0.48 1.02 1.37 1.24 1.18
1.85 1.97 1.64 1.57 1.52 1.63 1.75 1.95 2.27 2.49 3.21 3.94 4.85 3.02 3.57 5.61 3.51 1.01 1.03 0.68 0.45 0.52 0.95 1.34 1.56 1.45 1.73 2.17 1.78 1.69 1.51 1.33 1.19 1.26 0.64 0.84 1.09 1.57 1.71 1.41 0.74 0.40 0.52 0.98 1.01 1.07 1.06

GFSGBSN_prec_precacc_252.txt.gz
Total_Precipitation_Accumulation
1.29 1.29 1.21 1.03 0.78 0.51 0.39 0.30 0.25 0.19 0.16 0.12 0.10 0.08 0.07 0.07 0.08 0.06 0.05 0.03 0.04 0.04 0.04 0.05 0.05 0.05 0.04 0.02 0.00 0.00 0.00 0.00 0.00 0.00 0.00 0.00 0.00 0.00 0.00 0.00 0.00 0.00 0.00 0.00 0.01 0.01 0.01
1.05 1.03 1.30 1.55 1.70 1.62 1.42 1.16 0.91 0.74 0.62 0.48 0.37 0.27 0.21 0.15 0.11 0.09 0.09 0.06 0.05 0.05 0.05 0.07 0.08 0.10 0.08 0.03 0.00 0.00 0.00 0.00 0.00 0.00 0.00 0.00 0.00 0.00 0.00 0.00 0.00 0.00 0.00 0.00 0.02 0.00 0.00
1.36 1.30 1.11 1.00 1.16 1.38 1.54 1.56 1.50 1.33 1.17 1.05 0.98 0.87 0.69 0.55 0.37 0.23 0.16 0.10 0.08 0.12 0.14 0.16 0.17 0.14 0.10 0.01 0.00 0.00 0.00 0.00 0.00 0.00 0.00 0.00 0.00 0.00 0.00 0.00 0.00 0.00 0.00 0.00 0.00 0.01 0.01
1.44 1.47 1.52 1.46 1.24 1.12 1.15 1.30 1.32 1.32 1.36 1.26 1.25 1.12 0.95 0.75 0.63 0.48 0.30 0.20 0.17 0.13 0.17 0.30 0.37 0.25 0.13 0.00 0.00 0.00 0.00 0.00 0.00 0.00 0.00 0.00 0.00 0.00 0.00 0.00 0.00 0.00 0.00 0.00 0.00 0.01 0.02
1.17 1.21 1.31 1.46 1.51 1.45 1.41 1.40 1.46 1.41 1.29 1.29 1.33 1.37 1.20 1.02 0.76 0.53 0.43 0.33 0.24 0.26 0.33 0.35 0.45 0.36 0.09 0.00 0.00 0.00 0.00 0.02 0.00 0.00 0.00 0.00 0.00 0.00 0.00 0.00 0.01 0.00 0.00 0.00 0.00 0.00 0.01
1.33 1.17 1.08 1.07 1.10 1.14 1.15 1.22 1.35 1.41 1.45 1.33 1.36 1.41 1.43 1.35 1.21 1.01 0.79 0.60 0.48 0.52 0.60 0.68 0.58 0.29 0.04 0.00 0.00 0.00 0.00 0.02 0.01 0.00 0.00 0.00 0.00 0.01 0.00 0.01 0.01 0.00 0.00 0.00 0.02 0.07 0.00
1.97 1.80 1.57 1.42 1.24 1.05 0.97 1.02 1.09 1.13 1.24 1.28 1.20 1.22 1.25 1.31 1.37 1.45 1.28 1.22 1.09 0.94 0.72 0.36 0.21 0.08 0.00 0.00 0.00 0.00 0.00 0.00 0.00 0.00 0.02 0.00 0.02 0.01 0.00 0.00 0.00 0.01 0.01 0.00 0.00 0.00 0.00
2.00 1.90 1.83 1.76 1.65 1.57 1.45 1.31 1.11 1.01 1.00 1.16 1.40 1.40 1.21 1.19 1.36 1.58 1.46 1.31 0.92 0.70 0.59 0.09 0.02 0.01 0.01 0.00 0.00 0.00 0.01 0.04 0.03 0.03 0.03 0.04 0.03 0.00 0.00 0.00 0.00 0.02 0.03 0.01 0.01 0.01 0.02
1.85 1.89 1.79 1.70 1.67 1.58 1.54 1.51 1.39 1.09 0.88 0.96 1.19 1.56 1.73 1.61 1.75 1.94 1.81 1.30 0.65 0.61 0.96 0.25 0.06 0.03 0.02 0.01 0.03 0.03 0.00 0.02 0.07 0.06 0.06 0.05 0.02 0.00 0.02 0.01 0.01 0.01 0.05 0.03 0.03 0.01 0.00
1.76 1.69 1.69 1.73 1.82 1.80 1.72 1.63 1.36 1.11 1.07 1.15 1.24 1.60 1.95 2.50 3.20 2.16 1.95 0.99 0.84 1.36 1.56 0.57 0.08 0.04 0.03 0.03 0.06 0.00 0.00 0.01 0.08 0.08 0.15 0.20 0.03 0.03 0.03 0.01 0.06 0.04 0.00 0.01 0.02 0.10 0.07
1.78 1.78 1.73 1.67 1.67 1.65 1.65 1.71 1.69 1.51 1.29 1.24 1.35 1.71 2.12 2.58 2.22 2.15 1.42 0.70 1.53 2.29 3.60 0.80 0.04 0.00 0.05 0.03 0.02 0.02 0.00 0.02 0.05 0.15 0.46 0.25 0.03 0.05 0.06 0.03 0.06 0.03 0.00 0.02 0.04 0.11 0.22
1.69 1.71 1.82 1.85 1.67 1.52 1.52 1.57 1.56 1.53 1.54 1.50 1.49 1.69 2.36 2.57 2.31 1.26 0.71 1.40 3.18 5.44 4.78 0.67 0.02 0.01 0.02 0.01 0.01 0.01 0.04 0.03 0.03 0.20 0.25 0.06 0.02 0.13 0.18 0.01 0.02 0.04 0.06 0.10 0.14 0.30 0.62
2.24 1.81 1.69 1.73 1.77 1.84 1.64 1.47 1.40 1.54 1.66 1.72 1.83 1.95 2.28 1.93 2.31 1.48 1.74 3.41 6.09 6.43 2.48 0.40 0.04 0.02 0.01 0.01 0.00 0.03 0.11 0.09 0.14 0.28 0.26 0.09 0.11 0.07 0.15 0.14 0.05 0.10 0.31 0.73 0.76 0.66 0.49
2.21 2.17 2.02 1.81 1.70 1.71 1.74 1.68 1.53 1.50 1.65 1.91 2.23 2.54 2.50 2.10 1.71 2.18 3.81 5.91 7.12 3.62 1.18 0.18 0.05 0.07 0.09 0.04 0.02 0.03 0.15 0.15 0.08 0.10 0.31 0.40 0.36 0.14 0.25 0.33 0.15 0.11 0.40 0.75 0.75 0.30 0.10
2.21 2.16 2.04 1.83 1.58 1.53 1.59 1.75 1.78 1.90 2.00 2.21 2.94 3.31 3.43 2.91 2.72 3.49 5.88 8.95 5.59 1.77 0.34 0.08 0.10 0.23 0.30 0.26 0.16 0.17 0.32 0.37 0.28 0.31 0.86 0.89 0.59 0.25 0.19 0.17 0.24 0.53 0.68 0.24 1.08 0.78 0.78
2.73 2.29 2.13 1.98 1.76 1.61 1.59 1.57 1.91 2.14 2.33 2.61 2.79 3.34 3.28 2.85 3.54 5.13 7.58 6.98 3.16 0.81 0.14 0.11 0.35 0.26 0.27 0.25 0.41 0.47 0.52 0.62 0.45 0.42 0.89 1.33 1.44 0.27 0.21 0.37 0.31 0.58 0.60 1.44 2.69 2.72 1.49
3.39 2.69 2.31 2.24 2.11 1.63 1.54 1.53 1.76 2.13 2.24 2.93 3.46 4.42 3.13 2.72 5.16 8.04 8.69 4.94 2.16 0.64 0.33 0.45 0.35 0.48 0.31 0.31 0.56 0.70 0.77 0.64 0.83 0.36 0.60 1.03 1.71 0.87 0.45 0.65 0.63 0.78 1.39 2.68 3.14 2.31 1.91
3.30 3.42 2.94 2.54 2.65 2.23 1.67 1.76 1.99 2.25 2.82 4.00 4.63 4.81 3.14 3.44 6.39 7.31 5.55 2.87 1.37 0.56 0.58 0.88 0.66 0.38 0.44 0.43 0.51 0.67 0.84 0.89 0.82 0.59 0.57 0.89 1.72 1.29 0.53 0.27 0.31 0.89 1.70 2.84 4.93 4.17 3.26
3.22 3.26 3.52 3.16 3.06 3.25 2.51 2.11 2.32 2.62 3.12 4.06 5.58 4.17 4.11 4.69 5.61 4.25 2.84 2.15 1.36 0.66 0.62 1.29 1.07 0.66 0.56 0.49 1.07 0.61 0.63 0.77 0.95 0.90 0.80 0.94 1.75 1.72 1.12 0.92 0.71 1.37 1.68 2.07 2.99 3.74 3.67
2.80 3.01 2.86 3.39 3.28 3.80 3.49 2.86 2.59 2.81 3.78 4.68 6.45 5.87 6.21 6.19 3.96 2.46 1.90 1.63 1.32 0.72 0.49 0.75 0.97 0.55 0.78 1.11 1.06 1.05 0.60 0.76 0.96 0.80 0.63 1.46 1.13 1.42 1.18 1.00 1.10 1.17 1.00 1.51 2.52 3.03 2.20
2.11 2.51 2.91 2.95 3.55 3.92 4.22 3.91 3.62 3.73 4.45 7.35 8.41 4.59 2.93 3.79 2.71 2.02 1.80 1.79 1.04 1.01 1.02 0.75 0.93 0.65 0.75 1.33 1.20 0.85 0.63 0.99 1.19 0.93 0.84 1.68 1.50 1.25 0.92 0.40 0.48 0.78 0.79 0.81 1.49 1.30 1.67
1.82 1.86 2.40 3.04 3.54 3.45 3.93 4.28 4.11 4.31 5.90 9.66 8.34 2.92 1.54 1.08 0.99 1.67 1.65 1.65 0.90 0.82 1.43 1.21 1.18 0.77 0.77 0.92 0.84 0.95 0.98 0.89 1.15 0.85 1.19 1.89 2.04 1.49 1.52 0.54 0.73 0.97 0.90 0.59 0.82 0.69 0.68
1.68 1.63 2.02 2.56 2.89 2.99 3.57 4.13 4.11 4.28 6.91 11.72 6.64 1.70 2.05 1.61 0.88 1.36 1.57 1.22 0.99 1.24 1.13 0.67 0.88 0.94 0.96 0.96 0.78 0.58 0.69 0.83 0.78 0.86 1.22 1.99 2.72 2.42 2.18 0.69 0.99 1.70 0.88 0.62 0.53 0.30 0.26
1.85 1.75 1.78 2.16 2.28 2.76 3.27 3.59 4.14 4.63 5.55 6.41 3.87 1.83 2.67 2.57 1.18 0.98 0.58 0.59 0.74 0.87 1.85 0.96 0.83 0.94 0.83 0.65 0.85 1.05 1.13 1.13 1.12 1.14 1.31 1.95 2.04 2.76 2.51 1.28 2.36 1.63 0.46 0.44 0.52 0.40 0.19
2.12 1.98 2.00 2.19 2.30 2.50 3.10 3.17 3.68 4.59 4.96 4.60 3.55 2.42 3.10 2.60 1.11 0.85 0.58 0.62 0.59 0.87 1.16 1.37 1.09 0.95 0.75 0.85 1.80 2.45 2.38 2.14 1.54 1.27 1.47 1.66 1.72 2.67 2.45 1.75 1.37 0.43 0.32 0.40 0.87 0.79 0.41
2.19 2.07 2.07 2.14 2.23 2.35 2.71 2.91 2.89 3.86 4.85 4.86 4.25 3.04 3.57 3.76 1.45 0.63 0.64 0.43 0.70 1.12 1.29 1.10 1.23 1.29 1.41 1.83 2.64 2.77 1.99 1.58 1.18 1.02 0.75 1.07 1.68 2.68 2.62 2.13 1.26 0.29 0.13 0.28 0.61 1.50 1.02
1.97 1.99 1.81 1.93 2.09 2.08 2.41 2.70 2.59 3.02 4.04 5.13 4.98 2.98 4.67 4.80 1.28 0.71 1.05 0.83 0.58 0.79 1.18 0.98 1.18 1.50 1.55 2.78 3.44 2.49 1.51 0.70 0.83 0.75 0.96 1.46 2.44 2.89 2.21 2.09 0.67 0.11 0.09 0.22 1.43 1.60 1.11
1.93 2.04 1.77 1.82 1.85 1.78 2.05 2.30 2.41 2.61 3.54 4.37 5.27 2.67 4.35 5.07 1.96 0.91 0.87 0.75 0.57 0.72 1.33 1.20 1.89 1.82 2.25 2.35 2.10 2.01 1.78 1.29 1.00 0.65 0.59 1.08 2.04 2.23 2.16 2.54 1.13 0.33 0.48 1.02 1.37 1.24 1.18
1.89 2.10 1.83 1.78 1.70 1.68 1.76 1.96 2.28 2.50 3.25 3.95 4.85 3.02 3.57 5.61 3.51 1.01 1.03 0.68 0.45 0.52 0.95 1.34 1.56 1.45 1.73 2.17 1.78 1.69 1.51 1.33 1.19 1.26 0.64 0.84 1.09 1.57 1.71 1.41 0.74 0.40 0.52 0.98 1.01 1.07 1.06

GFSGBSN_prec_precacc_255.txt.gz
Total_Precipitation_Accumulation
1.29 1.29 1.21 1.03 0.78 0.51 0.39 0.30 0.25 0.19 0.16 0.12 0.10 0.08 0.07 0.07 0.08 0.06 0.05 0.03 0.04 0.04 0.04 0.05 0.05 0.05 0.04 0.02 0.00 0.00 0.00 0.00 0.00 0.00 0.00 0.00 0.00 0.00 0.00 0.00 0.00 0.00 0.00 0.00 0.01 0.01 0.01
1.05 1.03 1.30 1.55 1.70 1.62 1.42 1.16 0.92 0.74 0.62 0.48 0.37 0.27 0.21 0.15 0.11 0.09 0.09 0.06 0.05 0.05 0.05 0.07 0.08 0.10 0.08 0.03 0.00 0.00 0.00 0.00 0.00 0.00 0.00 0.00 0.00 0.00 0.00 0.00 0.00 0.00 0.00 0.00 0.02 0.00 0.00
1.36 1.30 1.11 1.00 1.16 1.38 1.54 1.56 1.50 1.33 1.17 1.05 0.98 0.87 0.69 0.55 0.37 0.23 0.16 0.10 0.08 0.12 0.14 0.16 0.17 0.14 0.10 0.01 0.00 0.00 0.00 0.00 0.00 0.00 0.00 0.00 0.00 0.00 0.00 0.00 0.00 0.00 0.00 0.00 0.00 0.01 0.01
1.44 1.47 1.53 1.47 1.24 1.12 1.16 1.30 1.32 1.33 1.36 1.26 1.25 1.12 0.95 0.75 0.63 0.48 0.30 0.20 0.17 0.13 0.17 0.30 0.37 0.25 0.13 0.00 0.00 0.00 0.00 0.00 0.00 0.00 0.00 0.00 0.00 0.00 0.00 0.00 0.00 0.00 0.00 0.00 0.00 0.01 0.02
1.17 1.21 1.32 1.46 1.51 1.45 1.41 1.40 1.46 1.41 1.29 1.29 1.33 1.37 1.20 1.02 0.76 0.53 0.43 0.33 0.24 0.26 0.33 0.35 0.45 0.36 0.09 0.00 0.00 0.00 0.00 0.02 0.00 0.00 0.00 0.00 0.00 0.00 0.00 0.00 0.01 0.00 0.00 0.00 0.00 0.00 0.01
1.34 1.18 1.08 1.07 1.10 1.14 1.15 1.22 1.35 1.42 1.45 1.33 1.36 1.41 1.43 1.35 1.21 1.01 0.79 0.60 0.48 0.52 0.60 0.68 0.58 0.29 0.04 0.00 0.00 0.00 0.00 0.02 0.01 0.00 0.00 0.00 0.00 0.01 0.00 0.01 0.01 0.00 0.00 0.00 0.02 0.07 0.00
1.97 1.82 1.57 1.42 1.25 1.05 0.97 1.02 1.09 1.13 1.24 1.28 1.20 1.22 1.25 1.31 1.37 1.45 1.28 1.22 1.09 0.94 0.72 0.36 0.21 0.08 0.00 0.00 0.00 0.00 0.00 0.00 0.00 0.00 0.02 0.00 0.02 0.01 0.00 0.00 0.00 0.01 0.01 0.00 0.00 0.00 0.00
2.00 1.91 1.83 1.77 1.66 1.57 1.45 1.31 1.11 1.01 1.00 1.16 1.40 1.40 1.21 1.19 1.36 1.58 1.46 1.31 0.92 0.70 0.59 0.09 0.02 0.01 0.01 0.00 0.00 0.00 0.01 0.04 0.03 0.03 0.03 0.04 0.03 0.00 0.00 0.00 0.00 0.02 0.03 0.01 0.01 0.01 0.02
1.86 1.89 1.79 1.71 1.68 1.59 1.54 1.51 1.39 1.09 0.88 0.96 1.19 1.56 1.73 1.61 1.75 1.94 1.81 1.30 0.65 0.61 0.96 0.25 0.06 0.03 0.02 0.01 0.03 0.03 0.00 0.02 0.07 0.06 0.06 0.05 0.02 0.00 0.02 0.01 0.01 0.01 0.05 0.03 0.03 0.01 0.00
1.77 1.70 1.69 1.73 1.82 1.81 1.73 1.63 1.36 1.11 1.07 1.15 1.24 1.60 1.95 2.50 3.20 2.16 1.95 0.99 0.84 1.36 1.56 0.57 0.08 0.04 0.03 0.03 0.06 0.00 0.00 0.01 0.08 0.08 0.15 0.20 0.03 0.03 0.03 0.01 0.07 0.05 0.00 0.02 0.02 0.11 0.08
1.79 1.79 1.74 1.67 1.67 1.66 1.66 1.71 1.69 1.51 1.29 1.24 1.35 1.71 2.12 2.58 2.22 2.15 1.42 0.70 1.53 2.29 3.60 0.80 0.04 0.00 0.05 0.03 0.02 0.02 0.00 0.02 0.05 0.15 0.46 0.25 0.03 0.05 0.06 0.03 0.06 0.05 0.00 0.02 0.04 0.11 0.26
1.70 1.72 1.82 1.86 1.67 1.52 1.52 1.58 1.56 1.54 1.55 1.51 1.49 1.69 2.36 2.57 2.31 1.26 0.71 1.40 3.18 5.44 4.78 0.67 0.02 0.01 0.02 0.01 0.01 0.01 0.04 0.03 0.03 0.20 0.25 0.06 0.02 0.13 0.18 0.01 0.02 0.04 0.07 0.10 0.15 0.32 0.70
2.25 1.81 1.69 1.73 1.77 1.84 1.64 1.48 1.40 1.55 1.67 1.72 1.83 1.95 2.28 1.93 2.31 1.48 1.74 3.41 6.09 6.43 2.48 0.40 0.04 0.02 0.01 0.01 0.00 0.03 0.11 0.09 0.14 0.28 0.26 0.09 0.11 0.07 0.15 0.15 0.05 0.10 0.32 0.73 0.78 0.69 0.52
2.23 2.18 2.03 1.82 1.70 1.71 1.74 1.69 1.53 1.50 1.66 1.91 2.23 2.54 2.50 2.10 1.71 2.18 3.81 5.91 7.12 3.62 1.18 0.18 0.05 0.07 0.09 0.04 0.02 0.03 0.15 0.15 0.08 0.10 0.31 0.40 0.36 0.14 0.25 0.36 0.17 0.11 0.41 0.76 0.76 0.31 0.10
2.22 2.17 2.05 1.84 1.59 1.53 1.60 1.76 1.79 1.90 2.01 2.21 2.94 3.31 3.43 2.91 2.72 3.49 5.88 8.95 5.59 1.77 0.34 0.08 0.10 0.23 0.30 0.26 0.16 0.17 0.32 0.37 0.28 0.31 0.86 0.89 0.59 0.25 0.19 0.17 0.25 0.56 0.74 0.27 1.10 0.81 0.81
2.75 2.31 2.15 1.99 1.77 1.62 1.60 1.57 1.91 2.15 2.34 2.61 2.79 3.34 3.28 2.85 3.54 5.13 7.58 6.98 3.16 0.81 0.14 0.11 0.35 0.26 0.27 0.25 0.41 0.47 0.52 0.62 0.45 0.42 0.89 1.33 1.44 0.27 0.21 0.37 0.31 0.59 0.60 1.53 2.77 2.73 1.60
3.43 2.72 2.34 2.25 2.12 1.63 1.54 1.54 1.77 2.14 2.25 2.93 3.46 4.42 3.13 2.72 5.16 8.04 8.69 4.94 2.16 0.64 0.33 0.45 0.35 0.48 0.31 0.31 0.56 0.70 0.77 0.64 0.83 0.36 0.60 1.03 1.71 0.87 0.45 0.65 0.63 0.78 1.39 2.68 3.19 2.33 1.94
3.34 3.45 2.96 2.56 2.66 2.24 1.68 1.77 2.00 2.26 2.83 4.00 4.63 4.81 3.14 3.44 6.39 7.31 5.55 2.87 1.37 0.56 0.58 0.88 0.66 0.38 0.44 0.43 0.51 0.67 0.84 0.89 0.82 0.59 0.57 0.89 1.72 1.29 0.53 0.27 0.31 0.89 1.70 2.84 4.94 4.18 3.26
3.26 3.29 3.56 3.19 3.08 3.26 2.51 2.12 2.33 2.64 3.13 4.06 5.58 4.17 4.11 4.69 5.61 4.25 2.84 2.15 1.36 0.66 0.62 1.29 1.07 0.66 0.56 0.49 1.07 0.61 0.63 0.77 0.95 0.90 0.80 0.94 1.75 1.72 1.12 0.92 0.71 1.37 1.68 2.07 2.99 3.74 3.67
2.83 3.06 2.92 3.44 3.30 3.81 3.50 2.87 2.60 2.83 3.78 4.68 6.45 5.87 6.21 6.19 3.96 2.46 1.90 1.63 1.32 0.72 0.49 0.75 0.97 0.55 0.78 1.11 1.06 1.05 0.60 0.76 0.96 0.80 0.63 1.46 1.13 1.42 1.18 1.00 1.10 1.17 1.00 1.51 2.52 3.03 2.20
2.13 2.56 2.97 2.99 3.58 3.94 4.23 3.92 3.63 3.75 4.46 7.35 8.41 4.59 2.93 3.79 2.71 2.02 1.80 1.79 1.04 1.01 1.02 0.75 0.93 0.65 0.75 1.33 1.20 0.85 0.63 0.99 1.19 0.93 0.84 1.68 1.50 1.25 0.92 0.40 0.48 0.78 0.79 0.81 1.49 1.30 1.67
1.84 1.91 2.47 3.14 3.63 3.49 3.95 4.29 4.11 4.34 5.93 9.67 8.34 2.92 1.54 1.08 0.99 1.67 1.65 1.65 0.90 0.82 1.43 1.21 1.18 0.77 0.77 0.92 0.84 0.95 0.98 0.89 1.15 0.85 1.19 1.89 2.04 1.49 1.52 0.54 0.73 0.97 0.90 0.59 0.82 0.69 0.68
1.70 1.66 2.10 2.69 3.01 3.10 3.60 4.14 4.12 4.31 6.94 11.72 6.64 1.70 2.05 1.61 0.88 1.36 1.57 1.22 0.99 1.24 1.13 0.67 0.88 0.94 0.96 0.96 0.78 0.58 0.69 0.83 0.78 0.86 1.22 1.99 2.72 2.42 2.18 0.69 0.99 1.70 0.88 0.62 0.53 0.30 0.26
1.86 1.76 1.80 2.26 2.44 2.93 3.39 3.62 4.15 4.64 5.57 6.41 3.87 1.83 2.67 2.57 1.18 0.98 0.58 0.59 0.74 0.87 1.85 0.96 0.83 0.94 0.83 0.65 0.85 1.05 1.13 1.13 1.12 1.14 1.31 1.95 2.04 2.76 2.51 1.28 2.36 1.63 0.46 0.44 0.52 0.40 0.19
2.13 2.00 2.03 2.25 2.47 2.66 3.19 3.21 3.69 4.60 4.99 4.60 3.55 2.42 3.10 2.60 1.11 0.85 0.58 0.62 0.59 0.87 1.16 1.37 1.09 0.95 0.75 0.85 1.80 2.45 2.38 2.14 1.54 1.27 1.47 1.66 1.72 2.67 2.45 1.75 1.37 0.43 0.32 0.40 0.87 0.79 0.41
2.21 2.10 2.10 2.18 2.37 2.59 2.95 3.02 2.90 3.86 4.88 4.87 4.25 3.04 3.57 3.76 1.45 0.63 0.64 0.43 0.70 1.12 1.29 1.10 1.23 1.29 1.41 1.83 2.64 2.77 1.99 1.58 1.18 1.02 0.75 1.07 1.68 2.68 2.62 2.13 1.26 0.29 0.13 0.28 0.61 1.50 1.02
2.00 2.02 1.84 1.96 2.20 2.29 2.61 2.82 2.62 3.03 4.07 5.15 4.98 2.98 4.67 4.80 1.28 0.71 1.05 0.83 0.58 0.79 1.18 0.98 1.18 1.50 1.55 2.78 3.44 2.49 1.51 0.70 0.83 0.75 0.96 1.46 2.44 2.89 2.21 2.09 0.67 0.11 0.09 0.22 1.43 1.60 1.11
1.97 2.07 1.79 1.86 1.95 2.00 2.31 2.51 2.46 2.62 3.57 4.40 5.28 2.67 4.35 5.07 1.96 0.91 0.87 0.75 0.57 0.72 1.33 1.20 1.89 1.82 2.25 2.35 2.10 2.01 1.78 1.29 1.00 0.65 0.59 1.08 2.04 2.23 2.16 2.54 1.13 0.33 0.48 1.02 1.37 1.24 1.18
1.93 2.14 1.85 1.81 1.78 1.88 1.99 2.19 2.39 2.53 3.27 3.99 4.86 3.02 3.57 5.61 3.51 1.01 1.03 0.68 0.45 0.52 0.95 1.34 1.56 1.45 1.73 2.17 1.78 1.69 1.51 1.33 1.19 1.26 0.64 0.84 1.09 1.57 1.71 1.41 0.74 0.40 0.52 0.98 1.01 1.07 1.06

GFSGBSN_prec_precacc_261.txt.gz
Total_Precipitation_Accumulation
1.29 1.29 1.21 1.03 0.78 0.51 0.39 0.30 0.25 0.19 0.16 0.12 0.10 0.08 0.07 0.07 0.08 0.06 0.05 0.03 0.04 0.04 0.04 0.05 0.05 0.05 0.04 0.02 0.00 0.00 0.00 0.00 0.00 0.00 0.00 0.00 0.00 0.00 0.00 0.00 0.00 0.00 0.00 0.00 0.01 0.01 0.01
1.05 1.03 1.30 1.55 1.70 1.62 1.42 1.16 0.92 0.74 0.63 0.48 0.37 0.27 0.21 0.15 0.11 0.09 0.09 0.06 0.05 0.05 0.05 0.07 0.08 0.10 0.08 0.03 0.00 0.00 0.00 0.00 0.00 0.00 0.00 0.00 0.00 0.00 0.00 0.00 0.00 0.00 0.00 0.00 0.02 0.00 0.00
1.36 1.30 1.11 1.00 1.17 1.38 1.54 1.56 1.50 1.33 1.17 1.06 0.98 0.87 0.69 0.55 0.37 0.23 0.16 0.10 0.08 0.12 0.14 0.16 0.17 0.14 0.10 0.01 0.00 0.00 0.00 0.00 0.00 0.00 0.00 0.00 0.00 0.00 0.00 0.00 0.00 0.00 0.00 0.00 0.00 0.01 0.01
1.44 1.47 1.53 1.50 1.25 1.12 1.16 1.31 1.32 1.34 1.36 1.26 1.25 1.12 0.95 0.75 0.63 0.48 0.30 0.20 0.17 0.13 0.17 0.30 0.37 0.25 0.13 0.00 0.00 0.00 0.00 0.00 0.00 0.00 0.00 0.00 0.00 0.00 0.00 0.00 0.00 0.00 0.00 0.00 0.00 0.01 0.02
1.17 1.21 1.34 1.47 1.51 1.45 1.41 1.40 1.47 1.42 1.29 1.29 1.33 1.37 1.20 1.02 0.76 0.53 0.43 0.33 0.24 0.26 0.33 0.35 0.45 0.36 0.09 0.00 0.00 0.00 0.00 0.02 0.00 0.00 0.00 0.00 0.00 0.00 0.00 0.00 0.01 0.00 0.00 0.00 0.00 0.00 0.01
1.34 1.19 1.11 1.07 1.10 1.14 1.16 1.22 1.35 1.42 1.46 1.34 1.36 1.41 1.43 1.35 1.21 1.01 0.79 0.60 0.48 0.52 0.60 0.68 0.58 0.29 0.04 0.00 0.00 0.00 0.00 0.02 0.01 0.00 0.00 0.00 0.00 0.01 0.00 0.01 0.01 0.00 0.00 0.00 0.02 0.07 0.00
1.98 1.82 1.58 1.43 1.25 1.05 0.97 1.02 1.10 1.14 1.25 1.28 1.20 1.22 1.25 1.31 1.37 1.45 1.28 1.22 1.09 0.94 0.72 0.36 0.21 0.08 0.00 0.00 0.00 0.00 0.00 0.00 0.00 0.00 0.02 0.00 0.02 0.01 0.00 0.00 0.00 0.01 0.01 0.00 0.00 0.00 0.00
2.00 1.91 1.84 1.78 1.67 1.58 1.46 1.31 1.11 1.02 1.00 1.16 1.40 1.40 1.21 1.19 1.36 1.58 1.46 1.31 0.92 0.70 0.59 0.09 0.02 0.01 0.01 0.00 0.00 0.00 0.01 0.04 0.03 0.03 0.03 0.04 0.03 0.00 0.00 0.00 0.00 0.02 0.03 0.01 0.01 0.01 0.02
1.86 1.90 1.80 1.72 1.69 1.59 1.55 1.51 1.39 1.09 0.88 0.96 1.19 1.56 1.73 1.61 1.75 1.94 1.81 1.30 0.65 0.61 0.96 0.25 0.06 0.03 0.02 0.01 0.03 0.03 0.00 0.02 0.07 0.06 0.06 0.05 0.02 0.00 0.02 0.01 0.01 0.01 0.05 0.03 0.03 0.02 0.00
1.78 1.70 1.70 1.74 1.83 1.81 1.73 1.64 1.36 1.11 1.07 1.16 1.24 1.60 1.95 2.50 3.20 2.16 1.95 0.99 0.84 1.36 1.56 0.57 0.08 0.04 0.03 0.03 0.06 0.00 0.00 0.01 0.08 0.08 0.15 0.20 0.03 0.03 0.03 0.01 0.07 0.06 0.00 0.02 0.02 0.12 0.08
1.80 1.80 1.75 1.68 1.67 1.66 1.66 1.71 1.70 1.51 1.29 1.25 1.36 1.71 2.12 2.58 2.22 2.15 1.42 0.70 1.53 2.29 3.60 0.80 0.04 0.00 0.05 0.03 0.02 0.02 0.00 0.02 0.05 0.15 0.46 0.25 0.03 0.05 0.06 0.03 0.07 0.05 0.00 0.02 0.04 0.12 0.26
1.71 1.72 1.83 1.86 1.68 1.52 1.52 1.58 1.56 1.54 1.55 1.51 1.49 1.69 2.36 2.57 2.31 1.26 0.71 1.40 3.18 5.44 4.78 0.67 0.02 0.01 0.02 0.01 0.01 0.01 0.04 0.03 0.03 0.20 0.25 0.06 0.02 0.13 0.18 0.01 0.02 0.04 0.07 0.10 0.15 0.32 0.73
2.28 1.83 1.71 1.74 1.78 1.85 1.64 1.48 1.41 1.55 1.67 1.72 1.83 1.95 2.28 1.93 2.31 1.48 1.74 3.41 6.09 6.43 2.48 0.40 0.04 0.02 0.01 0.01 0.00 0.03 0.11 0.09 0.14 0.28 0.26 0.09 0.11 0.07 0.15 0.15 0.05 0.10 0.32 0.74 0.80 0.75 0.56
2.27 2.23 2.06 1.84 1.71 1.72 1.74 1.69 1.54 1.50 1.66 1.91 2.23 2.54 2.50 2.10 1.71 2.18 3.81 5.91 7.12 3.62 1.18 0.18 0.05 0.07 0.09 0.04 0.02 0.03 0.15 0.15 0.08 0.10 0.31 0.40 0.36 0.14 0.25 0.36 0.17 0.11 0.46 0.82 0.79 0.35 0.15
2.28 2.22 2.09 1.87 1.61 1.55 1.60 1.76 1.79 1.91 2.01 2.21 2.94 3.31 3.43 2.91 2.72 3.49 5.88 8.95 5.59 1.77 0.34 0.08 0.10 0.23 0.30 0.26 0.16 0.17 0.32 0.37 0.28 0.31 0.86 0.89 0.59 0.25 0.19 0.17 0.25 0.56 0.74 0.30 1.14 0.84 0.97
2.81 2.37 2.21 2.04 1.81 1.64 1.61 1.57 1.92 2.15 2.34 2.61 2.79 3.34 3.28 2.85 3.54 5.13 7.58 6.98 3.16 0.81 0.14 0.11 0.35 0.26 0.27 0.25 0.41 0.47 0.52 0.62 0.45 0.42 0.89 1.33 1.44 0.27 0.21 0.37 0.31 0.59 0.60 1.54 2.83 2.79 1.72
3.48 2.78 2.40 2.31 2.18 1.68 1.57 1.55 1.77 2.15 2.26 2.93 3.46 4.42 3.13 2.72 5.16 8.04 8.69 4.94 2.16 0.64 0.33 0.45 0.35 0.48 0.31 0.31 0.56 0.70 0.77 0.64 0.83 0.36 0.60 1.03 1.71 0.87 0.45 0.65 0.63 0.78 1.39 2.68 3.21 2.34 1.98
3.36 3.48 3.01 2.63 2.71 2.28 1.72 1.78 2.01 2.27 2.85 4.00 4.63 4.81 3.14 3.44 6.39 7.31 5.55 2.87 1.37 0.56 0.58 0.88 0.66 0.38 0.44 0.43 0.51 0.67 0.84 0.89 0.82 0.59 0.57 0.89 1.72 1.29 0.53 0.27 0.31 0.89 1.70 2.84 4.95 4.19 3.28
3.27 3.31 3.58 3.24 3.19 3.37 2.60 2.16 2.33 2.66 3.13 4.06 5.58 4.17 4.11 4.69 5.61 4.25 2.84 2.15 1.36 0.66 0.62 1.29 1.07 0.66 0.56 0.49 1.07 0.61 0.63 0.77 0.95 0.90 0.80 0.94 1.75 1.72 1.12 0.92 0.71 1.37 1.68 2.07 2.99 3.75 3.67
2.85 3.07 2.94 3.47 3.37 3.92 3.62 2.96 2.62 2.85 3.79 4.68 6.45 5.88 6.22 6.20 3.96 2.46 1.90 1.63 1.32 0.72 0.49 0.75 0.97 0.55 0.78 1.11 1.06 1.05 0.60 0.76 0.96 0.80 0.63 1.46 1.13 1.42 1.18 1.00 1.10 1.17 1.00 1.51 2.52 3.04 2.21
2.15 2.57 2.98 3.01 3.62 4.01 4.35 4.06 3.73 3.77 4.47 7.36 8.41 4.59 2.93 3.80 2.71 2.02 1.80 1.79 1.04 1.01 1.02 0.75 0.93 0.65 0.75 1.33 1.20 0.85 0.63 0.99 1.19 0.93 0.84 1.68 1.50 1.25 0.92 0.40 0.48 0.78 0.79 0.81 1.49 1.30 1.68
1.86 1.92 2.48 3.16 3.67 3.59 4.13 4.52 4.33 4.42 5.95 9.69 8.35 2.93 1.54 1.08 0.99 1.67 1.65 1.65 0.90 0.82 1.43 1.21 1.18 0.77 0.77 0.92 0.84 0.95 0.98 0.89 1.15 0.85 1.19 1.89 2.04 1.49 1.52 0.54 0.73 0.97 0.90 0.59 0.82 0.69 0.68
1.71 1.67 2.12 2.70 3.04 3.16 3.73 4.38 4.44 4.46 6.98 11.76 6.65 1.71 2.05 1.61 0.88 1.36 1.57 1.22 0.99 1.24 1.13 0.67 0.88 0.94 0.96 0.96 0.78 0.58 0.69 0.83 0.78 0.86 1.22 1.99 2.72 2.42 2.18 0.69 0.99 1.70 0.88 0.62 0.53 0.30 0.26
1.87 1.78 1.81 2.28 2.46 2.97 3.53 3.86 4.47 5.04 5.73 6.44 3.87 1.83 2.68 2.58 1.18 0.98 0.58 0.59 0.74 0.87 1.85 0.96 0.83 0.94 0.83 0.65 0.85 1.05 1.13 1.13 1.12 1.14 1.31 1.95 2.04 2.76 2.51 1.28 2.36 1.63 0.46 0.44 0.52 0.40 0.19
2.14 2.01 2.04 2.26 2.49 2.69 3.26 3.42 4.09 5.01 5.24 4.71 3.56 2.42 3.10 2.61 1.11 0.85 0.58 0.62 0.59 0.87 1.16 1.37 1.09 0.95 0.75 0.85 1.80 2.45 2.38 2.14 1.54 1.27 1.47 1.66 1.72 2.67 2.45 1.75 1.37 0.43 0.32 0.40 0.87 0.79 0.41
2.23 2.11 2.11 2.18 2.38 2.61 3.00 3.22 3.20 4.21 5.23 5.10 4.34 3.05 3.57 3.78 1.45 0.63 0.64 0.43 0.70 1.12 1.29 1.10 1.23 1.29 1.41 1.83 2.64 2.77 1.99 1.58 1.18 1.02 0.75 1.07 1.68 2.68 2.62 2.13 1.26 0.29 0.13 0.28 0.61 1.50 1.02
2.02 2.03 1.86 1.98 2.22 2.32 2.65 2.94 2.90 3.42 4.51 5.51 5.22 3.02 4.69 4.82 1.28 0.71 1.05 0.83 0.58 0.79 1.18 0.98 1.18 1.50 1.55 2.78 3.44 2.49 1.51 0.70 0.83 0.75 0.96 1.46 2.44 2.89 2.21 2.09 0.67 0.11 0.09 0.22 1.43 1.60 1.11
2.00 2.09 1.82 1.88 1.96 2.03 2.35 2.60 2.66 2.85 3.89 4.86 5.66 2.76 4.37 5.10 1.97 0.91 0.87 0.75 0.57 0.72 1.33 1.20 1.89 1.82 2.25 2.35 2.10 2.01 1.78 1.29 1.00 0.65 0.59 1.08 2.04 2.23 2.16 2.55 1.13 0.33 0.48 1.02 1.37 1.24 1.18
1.97 2.16 1.88 1.84 1.80 1.90 2.03 2.27 2.62 2.86 3.57 4.39 5.31 3.17 3.60 5.64 3.51 1.01 1.03 0.68 0.45 0.52 0.95 1.34 1.56 1.45 1.73 2.17 1.78 1.69 1.51 1.33 1.19 1.26 0.64 0.84 1.09 1.57 1.71 1.41 0.74 0.40 0.52 0.98 1.01 1.07 1.06